Wetterdaten: Montag, 06.04.2020
Datum Zeit Temp. Aussen Temp. o. S. Temp +5cm Feuchte Auss Luftdruck Regen Sonnenschein Regendauer Solar Windben Empfang
06.04.2020 00:00 13,2 C 12,2 C 11,7 C 53 % 1018,2 hPa 0,0 l/m 0 min 0 min 0 W/m 6,4 km/h (2 Bft) 95,65 %
06.04.2020 00:02 13,2 C 12,2 C 11,7 C 54 % 1018,1 hPa 0,0 l/m 0 min 0 min 0 W/m 12,9 km/h (3 Bft) 94,59 %
06.04.2020 00:04 13,2 C 12,2 C 11,7 C 54 % 1018,2 hPa 0,0 l/m 0 min 0 min 0 W/m 22,5 km/h (4 Bft) 95,74 %
06.04.2020 00:08 13,1 C 12,2 C 11,1 C 54 % 1018,2 hPa 0,0 l/m 0 min 0 min 0 W/m 12,9 km/h (3 Bft) 94,68 %
06.04.2020 00:10 13,1 C 11,7 C 11,1 C 54 % 1018,2 hPa 0,0 l/m 0 min 0 min 0 W/m 3,2 km/h (1 Bft) 100,00 %
06.04.2020 00:12 13,1 C 11,7 C 11,1 C 54 % 1018,2 hPa 0,0 l/m 0 min 0 min 0 W/m 6,4 km/h (2 Bft) 100,00 %
06.04.2020 00:14 13,1 C 11,7 C 11,1 C 54 % 1018,2 hPa 0,0 l/m 0 min 0 min 0 W/m 3,2 km/h (1 Bft) 89,36 %
06.04.2020 00:16 13,1 C 11,7 C 11,1 C 54 % 1018,2 hPa 0,0 l/m 0 min 0 min 0 W/m 6,4 km/h (2 Bft) 100,00 %
06.04.2020 00:18 13,0 C 11,7 C 10,6 C 54 % 1018,2 hPa 0,0 l/m 0 min 0 min 0 W/m 12,9 km/h (3 Bft) 100,00 %
06.04.2020 00:20 12,9 C 11,7 C 10,6 C 54 % 1018,2 hPa 0,0 l/m 0 min 0 min 0 W/m 12,9 km/h (3 Bft) 100,00 %
06.04.2020 00:22 12,9 C 11,7 C 10,6 C 54 % 1018,2 hPa 0,0 l/m 0 min 0 min 0 W/m 16,1 km/h (3 Bft) 100,00 %
06.04.2020 00:24 12,8 C 11,1 C 10,6 C 55 % 1018,2 hPa 0,0 l/m 0 min 0 min 0 W/m 6,4 km/h (2 Bft) 100,00 %
06.04.2020 00:26 12,8 C 11,1 C 10,6 C 55 % 1018,2 hPa 0,0 l/m 0 min 0 min 0 W/m 12,9 km/h (3 Bft) 100,00 %
06.04.2020 00:28 12,8 C 11,1 C 10,6 C 55 % 1018,2 hPa 0,0 l/m 0 min 0 min 0 W/m 12,9 km/h (3 Bft) 95,74 %
06.04.2020 00:30 12,7 C 11,1 C 10,6 C 55 % 1018,2 hPa 0,0 l/m 0 min 0 min 0 W/m 6,4 km/h (2 Bft) 100,00 %
06.04.2020 00:32 12,7 C 11,1 C 10,6 C 55 % 1018,2 hPa 0,0 l/m 0 min 0 min 0 W/m 12,9 km/h (3 Bft) 100,00 %
06.04.2020 00:34 12,7 C 11,1 C 10,6 C 55 % 1018,2 hPa 0,0 l/m 0 min 0 min 0 W/m 9,7 km/h (2 Bft) 100,00 %
06.04.2020 00:36 12,6 C 11,1 C 10,0 C 55 % 1018,2 hPa 0,0 l/m 0 min 0 min 0 W/m 0,0 km/h (0 Bft) 97,83 %
06.04.2020 00:38 12,6 C 11,1 C 10,0 C 56 % 1018,2 hPa 0,0 l/m 0 min 0 min 0 W/m 16,1 km/h (3 Bft) 97,87 %
06.04.2020 00:40 12,5 C 11,1 C 10,0 C 55 % 1018,2 hPa 0,0 l/m 0 min 0 min 0 W/m 3,2 km/h (1 Bft) 100,00 %
06.04.2020 00:42 12,4 C 11,1 C 10,0 C 55 % 1018,2 hPa 0,0 l/m 0 min 0 min 0 W/m 3,2 km/h (1 Bft) 97,87 %
06.04.2020 00:44 12,4 C 10,6 C 10,0 C 56 % 1018,2 hPa 0,0 l/m 0 min 0 min 0 W/m 0,0 km/h (0 Bft) 100,00 %
06.04.2020 00:46 12,4 C 11,1 C 10,0 C 56 % 1018,2 hPa 0,0 l/m 0 min 0 min 0 W/m 6,4 km/h (2 Bft) 100,00 %
06.04.2020 00:48 12,3 C 11,1 C 10,0 C 56 % 1018,2 hPa 0,0 l/m 0 min 0 min 0 W/m 6,4 km/h (2 Bft) 100,00 %
06.04.2020 00:50 12,3 C 11,1 C 10,0 C 56 % 1018,2 hPa 0,0 l/m 0 min 0 min 0 W/m 6,4 km/h (2 Bft) 100,00 %
06.04.2020 00:52 12,3 C 11,1 C 10,6 C 56 % 1018,2 hPa 0,0 l/m 0 min 0 min 0 W/m 12,9 km/h (3 Bft) 100,00 %
06.04.2020 00:54 12,2 C 11,1 C 10,6 C 56 % 1018,2 hPa 0,0 l/m 0 min 0 min 0 W/m 16,1 km/h (3 Bft) 100,00 %
06.04.2020 00:56 12,2 C 11,1 C 10,6 C 56 % 1018,2 hPa 0,0 l/m 0 min 0 min 0 W/m 12,9 km/h (3 Bft) 97,87 %
06.04.2020 00:58 12,2 C 11,1 C 10,6 C 56 % 1018,2 hPa 0,0 l/m 0 min 0 min 0 W/m 12,9 km/h (3 Bft) 97,83 %
06.04.2020 01:00 12,2 C 11,1 C 10,6 C 56 % 1018,2 hPa 0,0 l/m 0 min 0 min 0 W/m 12,9 km/h (3 Bft) 97,87 %
06.04.2020 01:02 12,2 C 11,1 C 10,6 C 56 % 1018,2 hPa 0,0 l/m 0 min 0 min 0 W/m 12,9 km/h (3 Bft) 97,87 %
06.04.2020 01:04 12,2 C 11,7 C 10,6 C 56 % 1018,1 hPa 0,0 l/m 0 min 0 min 0 W/m 16,1 km/h (3 Bft) 97,87 %
06.04.2020 01:06 12,2 C 11,7 C 10,6 C 56 % 1018,1 hPa 0,0 l/m 0 min 0 min 0 W/m 12,9 km/h (3 Bft) 100,00 %
06.04.2020 01:08 12,2 C 11,7 C 10,6 C 56 % 1018,0 hPa 0,0 l/m 0 min 0 min 0 W/m 19,3 km/h (3 Bft) 95,74 %
06.04.2020 01:10 12,2 C 11,7 C 10,6 C 56 % 1018,0 hPa 0,0 l/m 0 min 0 min 0 W/m 16,1 km/h (3 Bft) 97,83 %
06.04.2020 01:12 12,2 C 11,7 C 10,6 C 56 % 1018,0 hPa 0,0 l/m 0 min 0 min 0 W/m 19,3 km/h (3 Bft) 95,74 %
06.04.2020 01:14 12,2 C 11,7 C 10,6 C 56 % 1018,0 hPa 0,0 l/m 0 min 0 min 0 W/m 12,9 km/h (3 Bft) 95,74 %
06.04.2020 01:16 12,2 C 11,7 C 10,6 C 56 % 1018,0 hPa 0,0 l/m 0 min 0 min 0 W/m 19,3 km/h (3 Bft) 97,87 %
06.04.2020 01:18 12,2 C 11,7 C 10,6 C 56 % 1018,0 hPa 0,0 l/m 0 min 0 min 0 W/m 12,9 km/h (3 Bft) 95,74 %
06.04.2020 01:20 12,2 C 11,7 C 10,6 C 56 % 1018,0 hPa 0,0 l/m 0 min 0 min 0 W/m 19,3 km/h (3 Bft) 97,87 %
06.04.2020 01:22 12,3 C 11,7 C 10,6 C 56 % 1018,0 hPa 0,0 l/m 0 min 0 min 0 W/m 19,3 km/h (3 Bft) 97,83 %
06.04.2020 01:24 12,3 C 11,7 C 10,6 C 56 % 1018,0 hPa 0,0 l/m 0 min 0 min 0 W/m 16,1 km/h (3 Bft) 97,87 %
06.04.2020 01:26 12,3 C 11,1 C 10,6 C 56 % 1018,0 hPa 0,0 l/m 0 min 0 min 0 W/m 12,9 km/h (3 Bft) 97,87 %
06.04.2020 01:28 12,2 C 11,1 C 10,6 C 56 % 1018,0 hPa 0,0 l/m 0 min 0 min 0 W/m 12,9 km/h (3 Bft) 97,87 %
06.04.2020 01:30 12,2 C 11,1 C 10,6 C 56 % 1018,1 hPa 0,0 l/m 0 min 0 min 0 W/m 12,9 km/h (3 Bft) 95,74 %
06.04.2020 01:32 12,2 C 11,1 C 10,6 C 56 % 1018,1 hPa 0,0 l/m 0 min 0 min 0 W/m 16,1 km/h (3 Bft) 93,48 %
06.04.2020 01:34 12,2 C 11,1 C 10,6 C 56 % 1018,1 hPa 0,0 l/m 0 min 0 min 0 W/m 12,9 km/h (3 Bft) 95,74 %
06.04.2020 01:36 12,2 C 11,1 C 10,0 C 56 % 1018,1 hPa 0,0 l/m 0 min 0 min 0 W/m 16,1 km/h (3 Bft) 97,87 %
06.04.2020 01:38 12,2 C 11,1 C 10,6 C 56 % 1018,1 hPa 0,0 l/m 0 min 0 min 0 W/m 6,4 km/h (2 Bft) 97,87 %
06.04.2020 01:40 12,2 C 11,1 C 10,0 C 56 % 1018,2 hPa 0,0 l/m 0 min 0 min 0 W/m 22,5 km/h (4 Bft) 97,87 %
06.04.2020 01:42 12,2 C 11,1 C 10,0 C 56 % 1018,1 hPa 0,0 l/m 0 min 0 min 0 W/m 12,9 km/h (3 Bft) 97,87 %
06.04.2020 01:44 12,1 C 11,1 C 10,0 C 56 % 1018,0 hPa 0,0 l/m 0 min 0 min 0 W/m 19,3 km/h (3 Bft) 97,83 %
06.04.2020 01:46 12,1 C 11,1 C 10,6 C 56 % 1018,0 hPa 0,0 l/m 0 min 0 min 0 W/m 16,1 km/h (3 Bft) 97,87 %
06.04.2020 01:48 12,1 C 11,1 C 10,0 C 56 % 1018,0 hPa 0,0 l/m 0 min 0 min 0 W/m 12,9 km/h (3 Bft) 100,00 %
06.04.2020 01:50 12,1 C 11,1 C 10,6 C 57 % 1018,1 hPa 0,0 l/m 0 min 0 min 0 W/m 12,9 km/h (3 Bft) 100,00 %
06.04.2020 01:52 12,1 C 11,1 C 10,6 C 57 % 1018,0 hPa 0,0 l/m 0 min 0 min 0 W/m 16,1 km/h (3 Bft) 97,87 %
06.04.2020 01:54 12,1 C 11,1 C 10,6 C 56 % 1018,0 hPa 0,0 l/m 0 min 0 min 0 W/m 16,1 km/h (3 Bft) 100,00 %
06.04.2020 01:56 12,1 C 11,1 C 10,0 C 57 % 1018,1 hPa 0,0 l/m 0 min 0 min 0 W/m 16,1 km/h (3 Bft) 97,83 %
06.04.2020 01:58 12,1 C 11,1 C 10,0 C 57 % 1018,1 hPa 0,0 l/m 0 min 0 min 0 W/m 6,4 km/h (2 Bft) 97,87 %
06.04.2020 02:00 12,0 C 11,1 C 10,0 C 56 % 1018,0 hPa 0,0 l/m 0 min 0 min 0 W/m 12,9 km/h (3 Bft) 97,87 %
06.04.2020 02:02 12,0 C 11,1 C 10,0 C 56 % 1018,1 hPa 0,0 l/m 0 min 0 min 0 W/m 19,3 km/h (3 Bft) 97,87 %
06.04.2020 02:04 12,0 C 11,1 C 10,0 C 56 % 1018,0 hPa 0,0 l/m 0 min 0 min 0 W/m 16,1 km/h (3 Bft) 93,62 %
06.04.2020 02:06 11,9 C 10,6 C 10,0 C 57 % 1018,1 hPa 0,0 l/m 0 min 0 min 0 W/m 12,9 km/h (3 Bft) 95,74 %
06.04.2020 02:08 11,9 C 10,6 C 10,0 C 57 % 1018,1 hPa 0,0 l/m 0 min 0 min 0 W/m 19,3 km/h (3 Bft) 95,65 %
06.04.2020 02:10 11,9 C 10,6 C 10,0 C 57 % 1018,0 hPa 0,0 l/m 0 min 0 min 0 W/m 12,9 km/h (3 Bft) 95,74 %
06.04.2020 02:12 11,9 C 10,6 C 10,0 C 57 % 1018,0 hPa 0,0 l/m 0 min 0 min 0 W/m 16,1 km/h (3 Bft) 95,74 %
06.04.2020 02:14 11,8 C 10,6 C 10,0 C 57 % 1018,1 hPa 0,0 l/m 0 min 0 min 0 W/m 12,9 km/h (3 Bft) 95,74 %
06.04.2020 02:16 11,8 C 10,6 C 10,0 C 57 % 1018,0 hPa 0,0 l/m 0 min 0 min 0 W/m 16,1 km/h (3 Bft) 95,74 %
06.04.2020 02:18 11,8 C 10,6 C 10,0 C 57 % 1018,0 hPa 0,0 l/m 0 min 0 min 0 W/m 16,1 km/h (3 Bft) 93,62 %
06.04.2020 02:20 11,8 C 10,6 C 10,0 C 57 % 1018,0 hPa 0,0 l/m 0 min 0 min 0 W/m 12,9 km/h (3 Bft) 95,65 %
06.04.2020 02:22 11,7 C 10,6 C 10,0 C 57 % 1018,0 hPa 0,0 l/m 0 min 0 min 0 W/m 16,1 km/h (3 Bft) 95,74 %
06.04.2020 02:24 11,7 C 10,6 C 10,0 C 57 % 1018,0 hPa 0,0 l/m 0 min 0 min 0 W/m 16,1 km/h (3 Bft) 95,74 %
06.04.2020 02:26 11,7 C 10,6 C 10,0 C 57 % 1017,9 hPa 0,0 l/m 0 min 0 min 0 W/m 16,1 km/h (3 Bft) 95,74 %
06.04.2020 02:28 11,7 C 10,6 C 10,0 C 57 % 1018,0 hPa 0,0 l/m 0 min 0 min 0 W/m 16,1 km/h (3 Bft) 95,74 %
06.04.2020 02:30 11,7 C 10,6 C 10,0 C 57 % 1018,0 hPa 0,0 l/m 0 min 0 min 0 W/m 12,9 km/h (3 Bft) 95,74 %
06.04.2020 02:32 11,6 C 10,6 C 9,4 C 57 % 1018,0 hPa 0,0 l/m 0 min 0 min 0 W/m 12,9 km/h (3 Bft) 95,65 %
06.04.2020 02:34 11,6 C 10,6 C 9,4 C 57 % 1018,0 hPa 0,0 l/m 0 min 0 min 0 W/m 6,4 km/h (2 Bft) 95,74 %
06.04.2020 02:36 11,6 C 10,6 C 9,4 C 57 % 1018,0 hPa 0,0 l/m 0 min 0 min 0 W/m 16,1 km/h (3 Bft) 93,62 %
06.04.2020 02:38 11,6 C 10,6 C 9,4 C 57 % 1018,0 hPa 0,0 l/m 0 min 0 min 0 W/m 12,9 km/h (3 Bft) 97,87 %
06.04.2020 02:40 11,6 C 10,6 C 9,4 C 57 % 1018,0 hPa 0,0 l/m 0 min 0 min 0 W/m 19,3 km/h (3 Bft) 97,87 %
06.04.2020 02:42 11,5 C 10,6 C 9,4 C 57 % 1018,0 hPa 0,0 l/m 0 min 0 min 0 W/m 12,9 km/h (3 Bft) 97,83 %
06.04.2020 02:44 11,4 C 10,6 C 9,4 C 57 % 1018,0 hPa 0,0 l/m 0 min 0 min 0 W/m 12,9 km/h (3 Bft) 97,87 %
06.04.2020 02:46 11,4 C 10,6 C 9,4 C 58 % 1017,9 hPa 0,0 l/m 0 min 0 min 0 W/m 19,3 km/h (3 Bft) 97,87 %
06.04.2020 02:48 11,4 C 10,6 C 9,4 C 58 % 1018,0 hPa 0,0 l/m 0 min 0 min 0 W/m 12,9 km/h (3 Bft) 97,87 %
06.04.2020 02:50 11,4 C 10,6 C 9,4 C 58 % 1017,9 hPa 0,0 l/m 0 min 0 min 0 W/m 19,3 km/h (3 Bft) 97,87 %
06.04.2020 02:52 11,4 C 10,6 C 9,4 C 58 % 1017,9 hPa 0,0 l/m 0 min 0 min 0 W/m 19,3 km/h (3 Bft) 97,87 %
06.04.2020 02:54 11,3 C 10,0 C 9,4 C 58 % 1017,9 hPa 0,0 l/m 0 min 0 min 0 W/m 16,1 km/h (3 Bft) 97,83 %
06.04.2020 02:56 11,3 C 10,0 C 9,4 C 58 % 1017,9 hPa 0,0 l/m 0 min 0 min 0 W/m 12,9 km/h (3 Bft) 95,74 %
06.04.2020 02:58 11,3 C 10,0 C 9,4 C 58 % 1018,0 hPa 0,0 l/m 0 min 0 min 0 W/m 16,1 km/h (3 Bft) 95,74 %
06.04.2020 03:00 11,3 C 10,0 C 9,4 C 58 % 1017,9 hPa 0,0 l/m 0 min 0 min 0 W/m 12,9 km/h (3 Bft) 97,87 %
06.04.2020 03:02 11,3 C 10,0 C 9,4 C 58 % 1018,0 hPa 0,0 l/m 0 min 0 min 0 W/m 12,9 km/h (3 Bft) 97,87 %
06.04.2020 03:04 11,2 C 10,0 C 9,4 C 58 % 1018,0 hPa 0,0 l/m 0 min 0 min 0 W/m 12,9 km/h (3 Bft) 95,74 %
06.04.2020 03:06 11,2 C 10,0 C 9,4 C 58 % 1017,9 hPa 0,0 l/m 0 min 0 min 0 W/m 19,3 km/h (3 Bft) 97,83 %
06.04.2020 03:08 11,2 C 10,0 C 9,4 C 58 % 1017,9 hPa 0,0 l/m 0 min 0 min 0 W/m 12,9 km/h (3 Bft) 100,00 %
06.04.2020 03:10 11,2 C 10,0 C 8,9 C 58 % 1017,9 hPa 0,0 l/m 0 min 0 min 0 W/m 12,9 km/h (3 Bft) 100,00 %
06.04.2020 03:12 11,1 C 10,0 C 9,4 C 58 % 1017,9 hPa 0,0 l/m 0 min 0 min 0 W/m 12,9 km/h (3 Bft) 100,00 %
06.04.2020 03:14 11,1 C 10,0 C 8,9 C 58 % 1017,9 hPa 0,0 l/m 0 min 0 min 0 W/m 12,9 km/h (3 Bft) 100,00 %
06.04.2020 03:16 11,1 C 10,0 C 8,9 C 59 % 1017,9 hPa 0,0 l/m 0 min 0 min 0 W/m 3,2 km/h (1 Bft) 100,00 %
06.04.2020 03:18 11,1 C 10,0 C 9,4 C 59 % 1017,9 hPa 0,0 l/m 0 min 0 min 0 W/m 3,2 km/h (1 Bft) 97,83 %
06.04.2020 03:20 11,0 C 10,0 C 8,9 C 59 % 1017,9 hPa 0,0 l/m 0 min 0 min 0 W/m 0,0 km/h (0 Bft) 95,74 %
06.04.2020 03:22 11,0 C 10,0 C 9,4 C 59 % 1017,9 hPa 0,0 l/m 0 min 0 min 0 W/m 12,9 km/h (3 Bft) 100,00 %
06.04.2020 03:24 10,9 C 10,0 C 9,4 C 59 % 1017,9 hPa 0,0 l/m 0 min 0 min 0 W/m 12,9 km/h (3 Bft) 97,87 %
06.04.2020 03:26 10,9 C 10,0 C 9,4 C 59 % 1017,9 hPa 0,0 l/m 0 min 0 min 0 W/m 16,1 km/h (3 Bft) 100,00 %
06.04.2020 03:28 10,9 C 10,0 C 9,4 C 59 % 1017,9 hPa 0,0 l/m 0 min 0 min 0 W/m 6,4 km/h (2 Bft) 100,00 %
06.04.2020 03:30 10,9 C 10,0 C 9,4 C 59 % 1017,9 hPa 0,0 l/m 0 min 0 min 0 W/m 19,3 km/h (3 Bft) 100,00 %
06.04.2020 03:32 10,9 C 10,0 C 8,9 C 59 % 1017,9 hPa 0,0 l/m 0 min 0 min 0 W/m 6,4 km/h (2 Bft) 100,00 %
06.04.2020 03:34 10,8 C 9,4 C 8,9 C 59 % 1017,9 hPa 0,0 l/m 0 min 0 min 0 W/m 12,9 km/h (3 Bft) 100,00 %
06.04.2020 03:36 10,8 C 9,4 C 8,9 C 59 % 1017,8 hPa 0,0 l/m 0 min 0 min 0 W/m 12,9 km/h (3 Bft) 100,00 %
06.04.2020 03:38 10,8 C 9,4 C 8,9 C 60 % 1017,8 hPa 0,0 l/m 0 min 0 min 0 W/m 12,9 km/h (3 Bft) 100,00 %
06.04.2020 03:40 10,8 C 9,4 C 8,9 C 60 % 1017,8 hPa 0,0 l/m 0 min 0 min 0 W/m 12,9 km/h (3 Bft) 100,00 %
06.04.2020 03:42 10,7 C 9,4 C 8,9 C 60 % 1017,8 hPa 0,0 l/m 0 min 0 min 0 W/m 16,1 km/h (3 Bft) 100,00 %
06.04.2020 03:44 10,7 C 9,4 C 8,9 C 60 % 1017,8 hPa 0,0 l/m 0 min 0 min 0 W/m 16,1 km/h (3 Bft) 100,00 %
06.04.2020 03:46 10,7 C 9,4 C 8,9 C 60 % 1017,8 hPa 0,0 l/m 0 min 0 min 0 W/m 16,1 km/h (3 Bft) 100,00 %
06.04.2020 03:48 10,7 C 9,4 C 8,9 C 60 % 1017,8 hPa 0,0 l/m 0 min 0 min 0 W/m 16,1 km/h (3 Bft) 97,87 %
06.04.2020 03:50 10,7 C 9,4 C 8,9 C 60 % 1017,8 hPa 0,0 l/m 0 min 0 min 0 W/m 16,1 km/h (3 Bft) 97,87 %
06.04.2020 03:52 10,7 C 9,4 C 8,9 C 60 % 1017,8 hPa 0,0 l/m 0 min 0 min 0 W/m 6,4 km/h (2 Bft) 97,83 %
06.04.2020 03:54 10,6 C 9,4 C 8,9 C 60 % 1017,8 hPa 0,0 l/m 0 min 0 min 0 W/m 6,4 km/h (2 Bft) 97,87 %
06.04.2020 03:56 10,6 C 9,4 C 8,9 C 60 % 1017,8 hPa 0,0 l/m 0 min 0 min 0 W/m 12,9 km/h (3 Bft) 97,87 %
06.04.2020 03:58 10,6 C 9,4 C 8,9 C 60 % 1017,8 hPa 0,0 l/m 0 min 0 min 0 W/m 16,1 km/h (3 Bft) 95,74 %
06.04.2020 04:00 10,6 C 9,4 C 8,9 C 60 % 1017,8 hPa 0,0 l/m 0 min 0 min 0 W/m 16,1 km/h (3 Bft) 95,74 %
06.04.2020 04:05 10,6 C 9,4 C 8,9 C 60 % 1017,8 hPa 0,0 l/m 0 min 0 min 0 W/m 16,1 km/h (3 Bft) 98,68 %
06.04.2020 04:06 10,6 C 9,4 C 8,9 C 60 % 1017,8 hPa 0,0 l/m 0 min 0 min 0 W/m 16,1 km/h (3 Bft) 100,00 %
06.04.2020 04:08 10,6 C 9,4 C 8,9 C 60 % 1017,9 hPa 0,0 l/m 0 min 0 min 0 W/m 16,1 km/h (3 Bft) 95,74 %
06.04.2020 04:10 10,5 C 9,4 C 8,9 C 60 % 1017,9 hPa 0,0 l/m 0 min 0 min 0 W/m 6,4 km/h (2 Bft) 97,87 %
06.04.2020 04:12 10,5 C 9,4 C 8,9 C 60 % 1017,9 hPa 0,0 l/m 0 min 0 min 0 W/m 12,9 km/h (3 Bft) 97,87 %
06.04.2020 04:14 10,5 C 9,4 C 8,9 C 60 % 1017,8 hPa 0,0 l/m 0 min 0 min 0 W/m 19,3 km/h (3 Bft) 97,87 %
06.04.2020 04:16 10,5 C 9,4 C 8,9 C 60 % 1017,8 hPa 0,0 l/m 0 min 0 min 0 W/m 19,3 km/h (3 Bft) 95,65 %
06.04.2020 04:18 10,5 C 9,4 C 8,9 C 60 % 1017,8 hPa 0,0 l/m 0 min 0 min 0 W/m 16,1 km/h (3 Bft) 97,87 %
06.04.2020 04:20 10,5 C 9,4 C 8,9 C 60 % 1017,8 hPa 0,0 l/m 0 min 0 min 0 W/m 12,9 km/h (3 Bft) 97,87 %
06.04.2020 04:22 10,5 C 9,4 C 8,9 C 60 % 1017,8 hPa 0,0 l/m 0 min 0 min 0 W/m 6,4 km/h (2 Bft) 95,74 %
06.04.2020 04:24 10,4 C 9,4 C 8,9 C 60 % 1017,8 hPa 0,0 l/m 0 min 0 min 0 W/m 12,9 km/h (3 Bft) 93,62 %
06.04.2020 04:26 10,4 C 9,4 C 8,9 C 60 % 1017,8 hPa 0,0 l/m 0 min 0 min 0 W/m 16,1 km/h (3 Bft) 97,83 %
06.04.2020 04:28 10,4 C 9,4 C 8,9 C 60 % 1017,8 hPa 0,0 l/m 0 min 0 min 0 W/m 12,9 km/h (3 Bft) 93,62 %
06.04.2020 04:30 10,4 C 9,4 C 8,9 C 60 % 1017,8 hPa 0,0 l/m 0 min 0 min 0 W/m 12,9 km/h (3 Bft) 95,74 %
06.04.2020 04:32 10,4 C 9,4 C 8,3 C 61 % 1017,8 hPa 0,0 l/m 0 min 0 min 0 W/m 16,1 km/h (3 Bft) 97,87 %
06.04.2020 04:34 10,4 C 9,4 C 8,3 C 60 % 1017,8 hPa 0,0 l/m 0 min 0 min 0 W/m 12,9 km/h (3 Bft) 95,74 %
06.04.2020 04:36 10,4 C 9,4 C 8,3 C 60 % 1017,8 hPa 0,0 l/m 0 min 0 min 0 W/m 12,9 km/h (3 Bft) 93,62 %
06.04.2020 04:38 10,3 C 9,4 C 8,3 C 61 % 1017,8 hPa 0,0 l/m 0 min 0 min 0 W/m 12,9 km/h (3 Bft) 95,74 %
06.04.2020 04:40 10,3 C 9,4 C 8,3 C 61 % 1017,8 hPa 0,0 l/m 0 min 0 min 0 W/m 16,1 km/h (3 Bft) 95,65 %
06.04.2020 04:42 10,3 C 9,4 C 8,3 C 61 % 1017,8 hPa 0,0 l/m 0 min 0 min 0 W/m 12,9 km/h (3 Bft) 97,87 %
06.04.2020 04:44 10,3 C 9,4 C 8,3 C 61 % 1017,8 hPa 0,0 l/m 0 min 0 min 0 W/m 16,1 km/h (3 Bft) 95,74 %
06.04.2020 04:46 10,3 C 9,4 C 8,3 C 61 % 1017,8 hPa 0,0 l/m 0 min 0 min 0 W/m 16,1 km/h (3 Bft) 97,87 %
06.04.2020 04:48 10,2 C 9,4 C 8,3 C 61 % 1017,8 hPa 0,0 l/m 0 min 0 min 0 W/m 12,9 km/h (3 Bft) 97,87 %
06.04.2020 04:50 10,2 C 9,4 C 8,3 C 61 % 1017,8 hPa 0,0 l/m 0 min 0 min 0 W/m 16,1 km/h (3 Bft) 95,65 %
06.04.2020 04:52 10,2 C 9,4 C 8,3 C 61 % 1017,8 hPa 0,0 l/m 0 min 0 min 0 W/m 12,9 km/h (3 Bft) 97,87 %
06.04.2020 04:54 10,2 C 9,4 C 8,3 C 61 % 1017,8 hPa 0,0 l/m 0 min 0 min 0 W/m 12,9 km/h (3 Bft) 97,87 %
06.04.2020 04:56 10,2 C 9,4 C 8,3 C 61 % 1017,8 hPa 0,0 l/m 0 min 0 min 0 W/m 19,3 km/h (3 Bft) 95,74 %
06.04.2020 04:58 10,2 C 9,4 C 8,3 C 61 % 1017,8 hPa 0,0 l/m 0 min 0 min 0 W/m 12,9 km/h (3 Bft) 97,87 %
06.04.2020 05:00 10,1 C 9,4 C 8,3 C 61 % 1017,8 hPa 0,0 l/m 0 min 0 min 0 W/m 16,1 km/h (3 Bft) 97,87 %
06.04.2020 05:02 10,1 C 8,9 C 8,3 C 61 % 1017,8 hPa 0,0 l/m 0 min 0 min 0 W/m 6,4 km/h (2 Bft) 97,83 %
06.04.2020 05:04 10,1 C 8,9 C 8,3 C 62 % 1017,8 hPa 0,0 l/m 0 min 0 min 0 W/m 12,9 km/h (3 Bft) 97,87 %
06.04.2020 05:06 10,1 C 8,9 C 8,3 C 62 % 1017,8 hPa 0,0 l/m 0 min 0 min 0 W/m 16,1 km/h (3 Bft) 97,87 %
06.04.2020 05:08 10,1 C 8,9 C 8,3 C 62 % 1017,8 hPa 0,0 l/m 0 min 0 min 0 W/m 16,1 km/h (3 Bft) 97,87 %
06.04.2020 05:10 10,1 C 8,9 C 8,3 C 62 % 1017,8 hPa 0,0 l/m 0 min 0 min 0 W/m 16,1 km/h (3 Bft) 100,00 %
06.04.2020 05:12 10,1 C 8,9 C 8,3 C 62 % 1017,8 hPa 0,0 l/m 0 min 0 min 0 W/m 12,9 km/h (3 Bft) 100,00 %
06.04.2020 05:14 10,1 C 8,9 C 8,3 C 62 % 1017,8 hPa 0,0 l/m 0 min 0 min 0 W/m 16,1 km/h (3 Bft) 97,83 %
06.04.2020 05:16 10,0 C 8,9 C 8,3 C 62 % 1017,7 hPa 0,0 l/m 0 min 0 min 0 W/m 16,1 km/h (3 Bft) 100,00 %
06.04.2020 05:18 10,0 C 8,9 C 8,3 C 62 % 1017,8 hPa 0,0 l/m 0 min 0 min 0 W/m 12,9 km/h (3 Bft) 100,00 %
06.04.2020 05:20 10,0 C 8,9 C 8,3 C 62 % 1017,7 hPa 0,0 l/m 0 min 0 min 0 W/m 12,9 km/h (3 Bft) 100,00 %
06.04.2020 05:22 9,9 C 8,9 C 8,3 C 62 % 1017,8 hPa 0,0 l/m 0 min 0 min 0 W/m 12,9 km/h (3 Bft) 100,00 %
06.04.2020 05:24 9,9 C 8,9 C 8,3 C 62 % 1017,8 hPa 0,0 l/m 0 min 0 min 0 W/m 16,1 km/h (3 Bft) 100,00 %
06.04.2020 05:26 9,9 C 8,9 C 8,3 C 62 % 1017,8 hPa 0,0 l/m 0 min 0 min 0 W/m 3,2 km/h (1 Bft) 97,83 %
06.04.2020 05:28 9,9 C 8,9 C 8,3 C 62 % 1017,7 hPa 0,0 l/m 0 min 0 min 0 W/m 16,1 km/h (3 Bft) 100,00 %
06.04.2020 05:30 9,9 C 8,9 C 8,3 C 62 % 1017,8 hPa 0,0 l/m 0 min 0 min 0 W/m 6,4 km/h (2 Bft) 100,00 %
06.04.2020 05:32 9,9 C 8,9 C 8,3 C 62 % 1017,7 hPa 0,0 l/m 0 min 0 min 0 W/m 16,1 km/h (3 Bft) 100,00 %
06.04.2020 05:34 9,9 C 8,9 C 8,3 C 62 % 1017,7 hPa 0,0 l/m 0 min 0 min 0 W/m 16,1 km/h (3 Bft) 100,00 %
06.04.2020 05:36 9,8 C 8,9 C 8,3 C 62 % 1017,7 hPa 0,0 l/m 0 min 0 min 0 W/m 12,9 km/h (3 Bft) 100,00 %
06.04.2020 05:38 9,8 C 8,9 C 8,3 C 62 % 1017,7 hPa 0,0 l/m 0 min 0 min 0 W/m 19,3 km/h (3 Bft) 100,00 %
06.04.2020 05:40 9,8 C 8,9 C 8,3 C 62 % 1017,7 hPa 0,0 l/m 0 min 0 min 0 W/m 19,3 km/h (3 Bft) 100,00 %
06.04.2020 05:42 9,8 C 8,9 C 8,3 C 62 % 1017,7 hPa 0,0 l/m 0 min 0 min 0 W/m 16,1 km/h (3 Bft) 100,00 %
06.04.2020 05:44 9,8 C 8,9 C 8,3 C 62 % 1017,7 hPa 0,0 l/m 0 min 0 min 0 W/m 16,1 km/h (3 Bft) 100,00 %
06.04.2020 05:46 9,8 C 8,9 C 8,3 C 62 % 1017,7 hPa 0,0 l/m 0 min 0 min 0 W/m 12,9 km/h (3 Bft) 97,87 %
06.04.2020 05:48 9,8 C 8,9 C 8,3 C 62 % 1017,7 hPa 0,0 l/m 0 min 0 min 0 W/m 16,1 km/h (3 Bft) 100,00 %
06.04.2020 05:50 9,8 C 8,9 C 8,3 C 62 % 1017,7 hPa 0,0 l/m 0 min 0 min 0 W/m 19,3 km/h (3 Bft) 100,00 %
06.04.2020 05:52 9,8 C 8,9 C 8,3 C 62 % 1017,8 hPa 0,0 l/m 0 min 0 min 0 W/m 12,9 km/h (3 Bft) 100,00 %
06.04.2020 05:54 9,8 C 8,9 C 8,3 C 62 % 1017,8 hPa 0,0 l/m 0 min 0 min 0 W/m 16,1 km/h (3 Bft) 97,87 %
06.04.2020 05:56 9,8 C 8,9 C 8,3 C 62 % 1017,8 hPa 0,0 l/m 0 min 0 min 0 W/m 16,1 km/h (3 Bft) 95,74 %
06.04.2020 05:58 9,8 C 8,9 C 8,3 C 62 % 1017,8 hPa 0,0 l/m 0 min 0 min 0 W/m 19,3 km/h (3 Bft) 97,87 %
06.04.2020 06:00 9,8 C 8,9 C 8,3 C 62 % 1017,8 hPa 0,0 l/m 0 min 0 min 0 W/m 19,3 km/h (3 Bft) 97,83 %
06.04.2020 06:02 9,8 C 8,9 C 8,3 C 62 % 1017,8 hPa 0,0 l/m 0 min 0 min 0 W/m 16,1 km/h (3 Bft) 97,87 %
06.04.2020 06:04 9,8 C 8,9 C 8,3 C 62 % 1017,7 hPa 0,0 l/m 0 min 0 min 0 W/m 12,9 km/h (3 Bft) 97,87 %
06.04.2020 06:08 9,8 C 8,9 C 8,3 C 62 % 1017,8 hPa 0,0 l/m 0 min 0 min 0 W/m 19,3 km/h (3 Bft) 97,87 %
06.04.2020 06:10 9,8 C 8,9 C 8,3 C 62 % 1017,7 hPa 0,0 l/m 0 min 0 min 0 W/m 16,1 km/h (3 Bft) 97,87 %
06.04.2020 06:12 9,8 C 8,9 C 8,3 C 62 % 1017,7 hPa 0,0 l/m 0 min 0 min 0 W/m 12,9 km/h (3 Bft) 97,83 %
06.04.2020 06:14 9,8 C 8,9 C 8,3 C 62 % 1017,8 hPa 0,0 l/m 0 min 0 min 0 W/m 12,9 km/h (3 Bft) 100,00 %
06.04.2020 06:16 9,8 C 8,9 C 8,3 C 62 % 1017,7 hPa 0,0 l/m 0 min 0 min 0 W/m 12,9 km/h (3 Bft) 100,00 %
06.04.2020 06:18 9,8 C 8,9 C 8,3 C 62 % 1017,7 hPa 0,0 l/m 0 min 0 min 0 W/m 16,1 km/h (3 Bft) 100,00 %
06.04.2020 06:20 9,8 C 8,9 C 8,3 C 62 % 1017,7 hPa 0,0 l/m 0 min 0 min 0 W/m 12,9 km/h (3 Bft) 100,00 %
06.04.2020 06:22 9,8 C 8,9 C 8,3 C 62 % 1017,7 hPa 0,0 l/m 0 min 0 min 0 W/m 12,9 km/h (3 Bft) 93,62 %
06.04.2020 06:24 9,8 C 8,9 C 8,3 C 62 % 1017,6 hPa 0,0 l/m 0 min 0 min 0 W/m 16,1 km/h (3 Bft) 97,83 %
06.04.2020 06:26 9,8 C 8,9 C 8,3 C 62 % 1017,6 hPa 0,0 l/m 0 min 0 min 0 W/m 12,9 km/h (3 Bft) 97,87 %
06.04.2020 06:28 9,8 C 8,9 C 8,3 C 62 % 1017,7 hPa 0,0 l/m 0 min 0 min 0 W/m 16,1 km/h (3 Bft) 95,74 %
06.04.2020 06:30 9,8 C 8,9 C 8,3 C 62 % 1017,6 hPa 0,0 l/m 0 min 0 min 0 W/m 12,9 km/h (3 Bft) 97,87 %
06.04.2020 06:32 9,8 C 8,9 C 8,3 C 62 % 1017,7 hPa 0,0 l/m 0 min 0 min 0 W/m 16,1 km/h (3 Bft) 93,62 %
06.04.2020 06:34 9,8 C 8,9 C 8,3 C 62 % 1017,7 hPa 0,0 l/m 0 min 0 min 0 W/m 19,3 km/h (3 Bft) 97,87 %
06.04.2020 06:36 9,8 C 8,9 C 8,3 C 62 % 1017,7 hPa 0,0 l/m 0 min 0 min 0 W/m 16,1 km/h (3 Bft) 91,30 %
06.04.2020 06:38 9,8 C 8,9 C 7,8 C 62 % 1017,7 hPa 0,0 l/m 0 min 0 min 0 W/m 19,3 km/h (3 Bft) 97,87 %
06.04.2020 06:40 9,7 C 8,9 C 7,8 C 63 % 1017,6 hPa 0,0 l/m 0 min 0 min 0 W/m 19,3 km/h (3 Bft) 97,87 %
06.04.2020 06:42 9,7 C 8,9 C 7,8 C 63 % 1017,6 hPa 0,0 l/m 0 min 0 min 0 W/m 19,3 km/h (3 Bft) 95,74 %
06.04.2020 06:44 9,7 C 8,9 C 7,8 C 63 % 1017,6 hPa 0,0 l/m 0 min 0 min 0 W/m 16,1 km/h (3 Bft) 95,74 %
06.04.2020 06:46 9,7 C 8,9 C 7,8 C 63 % 1017,6 hPa 0,0 l/m 0 min 0 min 0 W/m 22,5 km/h (4 Bft) 95,65 %
06.04.2020 06:48 9,7 C 8,9 C 7,8 C 63 % 1017,7 hPa 0,0 l/m 0 min 0 min 0 W/m 12,9 km/h (3 Bft) 95,74 %
06.04.2020 06:50 9,7 C 8,9 C 7,8 C 63 % 1017,7 hPa 0,0 l/m 0 min 0 min 0 W/m 16,1 km/h (3 Bft) 93,62 %
06.04.2020 06:52 9,7 C 8,9 C 8,3 C 63 % 1017,7 hPa 0,0 l/m 0 min 0 min 0 W/m 16,1 km/h (3 Bft) 95,74 %
06.04.2020 06:54 9,7 C 8,9 C 8,3 C 63 % 1017,7 hPa 0,0 l/m 0 min 0 min 0 W/m 12,9 km/h (3 Bft) 95,74 %
06.04.2020 06:56 9,6 C 8,9 C 8,3 C 63 % 1017,7 hPa 0,0 l/m 0 min 0 min 0 W/m 22,5 km/h (4 Bft) 93,62 %
06.04.2020 06:58 9,7 C 8,9 C 8,3 C 63 % 1017,7 hPa 0,0 l/m 0 min 0 min 0 W/m 16,1 km/h (3 Bft) 95,65 %
06.04.2020 07:00 9,7 C 8,9 C 8,3 C 63 % 1017,7 hPa 0,0 l/m 0 min 0 min 4 W/m 25,7 km/h (4 Bft) 97,87 %
06.04.2020 07:02 9,7 C 8,9 C 8,3 C 63 % 1017,6 hPa 0,0 l/m 0 min 0 min 5 W/m 22,5 km/h (4 Bft) 93,62 %
06.04.2020 07:04 9,7 C 8,9 C 8,3 C 63 % 1017,7 hPa 0,0 l/m 0 min 0 min 5 W/m 19,3 km/h (3 Bft) 95,74 %
06.04.2020 07:06 9,7 C 8,9 C 8,3 C 63 % 1017,7 hPa 0,0 l/m 0 min 0 min 7 W/m 16,1 km/h (3 Bft) 93,62 %
06.04.2020 07:08 9,7 C 8,9 C 8,3 C 63 % 1017,7 hPa 0,0 l/m 0 min 0 min 7 W/m 16,1 km/h (3 Bft) 95,74 %
06.04.2020 07:10 9,7 C 8,9 C 8,3 C 63 % 1017,7 hPa 0,0 l/m 0 min 0 min 8 W/m 19,3 km/h (3 Bft) 95,65 %
06.04.2020 07:12 9,7 C 8,9 C 8,3 C 63 % 1017,7 hPa 0,0 l/m 0 min 0 min 9 W/m 16,1 km/h (3 Bft) 95,74 %
06.04.2020 07:14 9,7 C 8,9 C 7,8 C 63 % 1017,7 hPa 0,0 l/m 0 min 0 min 10 W/m 22,5 km/h (4 Bft) 93,62 %
06.04.2020 07:16 9,7 C 8,9 C 7,8 C 63 % 1017,7 hPa 0,0 l/m 0 min 0 min 11 W/m 19,3 km/h (3 Bft) 91,49 %
06.04.2020 07:18 9,6 C 8,9 C 7,8 C 63 % 1017,8 hPa 0,0 l/m 0 min 0 min 11 W/m 19,3 km/h (3 Bft) 91,49 %
06.04.2020 07:20 9,6 C 8,9 C 7,8 C 63 % 1017,8 hPa 0,0 l/m 0 min 0 min 12 W/m 16,1 km/h (3 Bft) 95,74 %
06.04.2020 07:22 9,6 C 8,9 C 7,8 C 63 % 1017,9 hPa 0,0 l/m 0 min 0 min 13 W/m 12,9 km/h (3 Bft) 95,65 %
06.04.2020 07:24 9,6 C 8,9 C 7,8 C 63 % 1017,9 hPa 0,0 l/m 0 min 0 min 14 W/m 16,1 km/h (3 Bft) 95,74 %
06.04.2020 07:26 9,6 C 8,9 C 7,8 C 63 % 1017,9 hPa 0,0 l/m 0 min 0 min 14 W/m 16,1 km/h (3 Bft) 95,74 %
06.04.2020 07:28 9,6 C 8,9 C 7,8 C 63 % 1018,0 hPa 0,0 l/m 0 min 0 min 16 W/m 19,3 km/h (3 Bft) 95,74 %
06.04.2020 07:30 9,6 C 8,9 C 7,8 C 63 % 1018,0 hPa 0,0 l/m 0 min 0 min 16 W/m 12,9 km/h (3 Bft) 95,74 %
06.04.2020 07:32 9,6 C 8,9 C 7,8 C 63 % 1018,0 hPa 0,0 l/m 0 min 0 min 17 W/m 6,4 km/h (2 Bft) 55,56 %
06.04.2020 07:34 9,6 C 8,9 C 7,8 C 63 % 1018,0 hPa 0,0 l/m 0 min 0 min 18 W/m 16,1 km/h (3 Bft) 97,87 %
06.04.2020 07:36 9,6 C 8,9 C 7,8 C 63 % 1018,0 hPa 0,0 l/m 0 min 0 min 18 W/m 16,1 km/h (3 Bft) 95,74 %
06.04.2020 07:38 9,5 C 8,9 C 7,8 C 63 % 1018,0 hPa 0,0 l/m 0 min 0 min 19 W/m 3,2 km/h (1 Bft) 95,74 %
06.04.2020 07:40 9,6 C 8,9 C 7,8 C 64 % 1018,0 hPa 0,0 l/m 0 min 0 min 19 W/m 12,9 km/h (3 Bft) 95,74 %
06.04.2020 07:42 9,5 C 8,9 C 7,8 C 64 % 1018,0 hPa 0,0 l/m 0 min 0 min 20 W/m 16,1 km/h (3 Bft) 97,87 %
06.04.2020 07:44 9,5 C 8,9 C 7,8 C 64 % 1018,0 hPa 0,0 l/m 0 min 0 min 21 W/m 16,1 km/h (3 Bft) 97,83 %
06.04.2020 07:46 9,5 C 8,9 C 8,3 C 64 % 1018,1 hPa 0,0 l/m 0 min 0 min 21 W/m 22,5 km/h (4 Bft) 95,74 %
06.04.2020 07:48 9,5 C 8,9 C 8,3 C 64 % 1018,1 hPa 0,0 l/m 0 min 0 min 23 W/m 19,3 km/h (3 Bft) 100,00 %
06.04.2020 07:50 9,5 C 8,9 C 8,3 C 64 % 1018,1 hPa 0,0 l/m 0 min 0 min 23 W/m 12,9 km/h (3 Bft) 100,00 %
06.04.2020 07:52 9,6 C 8,9 C 8,3 C 64 % 1018,2 hPa 0,0 l/m 0 min 0 min 24 W/m 22,5 km/h (4 Bft) 100,00 %
06.04.2020 07:54 9,6 C 9,4 C 8,3 C 64 % 1018,2 hPa 0,0 l/m 0 min 0 min 25 W/m 22,5 km/h (4 Bft) 97,87 %
06.04.2020 07:56 9,6 C 9,4 C 8,3 C 64 % 1018,2 hPa 0,0 l/m 0 min 0 min 25 W/m 16,1 km/h (3 Bft) 100,00 %
06.04.2020 07:58 9,6 C 9,4 C 8,3 C 64 % 1018,2 hPa 0,0 l/m 0 min 0 min 26 W/m 16,1 km/h (3 Bft) 100,00 %
06.04.2020 08:00 9,6 C 9,4 C 8,3 C 64 % 1018,3 hPa 0,0 l/m 0 min 0 min 26 W/m 16,1 km/h (3 Bft) 100,00 %
06.04.2020 08:02 9,7 C 9,4 C 8,3 C 64 % 1018,3 hPa 0,0 l/m 0 min 0 min 26 W/m 22,5 km/h (4 Bft) 100,00 %
06.04.2020 08:04 9,7 C 9,4 C 8,9 C 64 % 1018,2 hPa 0,0 l/m 0 min 0 min 27 W/m 19,3 km/h (3 Bft) 100,00 %
06.04.2020 08:06 9,8 C 9,4 C 8,9 C 64 % 1018,3 hPa 0,0 l/m 0 min 0 min 28 W/m 19,3 km/h (3 Bft) 100,00 %
06.04.2020 08:08 9,8 C 10,0 C 8,9 C 64 % 1018,3 hPa 0,0 l/m 0 min 0 min 28 W/m 16,1 km/h (3 Bft) 100,00 %
06.04.2020 08:10 9,8 C 9,4 C 8,9 C 64 % 1018,3 hPa 0,0 l/m 0 min 0 min 29 W/m 22,5 km/h (4 Bft) 100,00 %
06.04.2020 08:12 9,9 C 9,4 C 8,9 C 64 % 1018,3 hPa 0,0 l/m 0 min 0 min 30 W/m 22,5 km/h (4 Bft) 97,87 %
06.04.2020 08:14 9,9 C 10,0 C 8,9 C 64 % 1018,4 hPa 0,0 l/m 0 min 0 min 30 W/m 25,7 km/h (4 Bft) 100,00 %
06.04.2020 08:16 9,9 C 10,0 C 8,9 C 64 % 1018,4 hPa 0,0 l/m 0 min 0 min 31 W/m 22,5 km/h (4 Bft) 100,00 %
06.04.2020 08:18 10,0 C 10,0 C 8,9 C 64 % 1018,4 hPa 0,0 l/m 0 min 0 min 32 W/m 16,1 km/h (3 Bft) 100,00 %
06.04.2020 08:20 10,1 C 10,0 C 8,9 C 64 % 1018,5 hPa 0,0 l/m 0 min 0 min 32 W/m 19,3 km/h (3 Bft) 100,00 %
06.04.2020 08:22 10,1 C 10,0 C 8,9 C 64 % 1018,4 hPa 0,0 l/m 0 min 0 min 32 W/m 19,3 km/h (3 Bft) 100,00 %
06.04.2020 08:24 10,1 C 10,0 C 9,4 C 64 % 1018,4 hPa 0,0 l/m 0 min 0 min 33 W/m 19,3 km/h (3 Bft) 100,00 %
06.04.2020 08:26 10,2 C 10,0 C 9,4 C 64 % 1018,5 hPa 0,0 l/m 0 min 0 min 33 W/m 12,9 km/h (3 Bft) 97,87 %
06.04.2020 08:28 10,2 C 10,6 C 9,4 C 63 % 1018,6 hPa 0,0 l/m 0 min 0 min 34 W/m 19,3 km/h (3 Bft) 100,00 %
06.04.2020 08:30 10,3 C 10,6 C 9,4 C 63 % 1018,6 hPa 0,0 l/m 0 min 0 min 35 W/m 19,3 km/h (3 Bft) 100,00 %
06.04.2020 08:32 10,4 C 10,6 C 9,4 C 63 % 1018,6 hPa 0,0 l/m 0 min 0 min 35 W/m 19,3 km/h (3 Bft) 97,87 %
06.04.2020 08:34 10,4 C 10,6 C 9,4 C 63 % 1018,5 hPa 0,0 l/m 0 min 0 min 36 W/m 12,9 km/h (3 Bft) 97,87 %
06.04.2020 08:36 10,5 C 10,6 C 10,0 C 63 % 1018,6 hPa 0,0 l/m 0 min 0 min 37 W/m 19,3 km/h (3 Bft) 100,00 %
06.04.2020 08:38 10,6 C 11,1 C 10,0 C 62 % 1018,6 hPa 0,0 l/m 0 min 0 min 37 W/m 19,3 km/h (3 Bft) 100,00 %
06.04.2020 08:40 10,7 C 11,1 C 10,0 C 62 % 1018,6 hPa 0,0 l/m 0 min 0 min 39 W/m 25,7 km/h (4 Bft) 100,00 %
06.04.2020 08:42 10,8 C 11,1 C 10,0 C 62 % 1018,7 hPa 0,0 l/m 0 min 0 min 39 W/m 19,3 km/h (3 Bft) 100,00 %
06.04.2020 08:44 10,8 C 11,1 C 10,0 C 62 % 1018,7 hPa 0,0 l/m 0 min 0 min 39 W/m 16,1 km/h (3 Bft) 100,00 %
06.04.2020 08:46 10,9 C 11,1 C 10,0 C 62 % 1018,7 hPa 0,0 l/m 0 min 0 min 39 W/m 22,5 km/h (4 Bft) 100,00 %
06.04.2020 08:48 11,0 C 11,1 C 10,0 C 62 % 1018,6 hPa 0,0 l/m 0 min 0 min 40 W/m 19,3 km/h (3 Bft) 100,00 %
06.04.2020 08:50 11,1 C 11,7 C 10,6 C 61 % 1018,7 hPa 0,0 l/m 0 min 0 min 40 W/m 19,3 km/h (3 Bft) 100,00 %
06.04.2020 08:52 11,2 C 11,7 C 10,6 C 61 % 1018,7 hPa 0,0 l/m 0 min 0 min 40 W/m 25,7 km/h (4 Bft) 100,00 %
06.04.2020 08:54 11,3 C 11,7 C 10,6 C 61 % 1018,7 hPa 0,0 l/m 0 min 0 min 42 W/m 29,0 km/h (5 Bft) 100,00 %
06.04.2020 08:56 11,4 C 11,7 C 10,6 C 60 % 1018,7 hPa 0,0 l/m 0 min 0 min 42 W/m 19,3 km/h (3 Bft) 100,00 %
06.04.2020 08:58 11,5 C 11,7 C 10,6 C 60 % 1018,7 hPa 0,0 l/m 0 min 0 min 42 W/m 19,3 km/h (3 Bft) 100,00 %
06.04.2020 09:00 11,6 C 11,7 C 11,1 C 60 % 1018,7 hPa 0,0 l/m 0 min 0 min 42 W/m 22,5 km/h (4 Bft) 100,00 %
06.04.2020 09:02 11,7 C 11,7 C 11,1 C 60 % 1018,7 hPa 0,0 l/m 0 min 0 min 44 W/m 22,5 km/h (4 Bft) 97,87 %
06.04.2020 09:04 11,8 C 12,2 C 11,1 C 59 % 1018,6 hPa 0,0 l/m 0 min 0 min 44 W/m 25,7 km/h (4 Bft) 100,00 %
06.04.2020 09:06 11,8 C 12,2 C 11,1 C 59 % 1018,7 hPa 0,0 l/m 0 min 0 min 83 W/m 25,7 km/h (4 Bft) 100,00 %
06.04.2020 09:08 11,9 C 12,2 C 11,1 C 59 % 1018,7 hPa 0,0 l/m 0 min 0 min 69 W/m 22,5 km/h (4 Bft) 100,00 %
06.04.2020 09:10 12,0 C 12,2 C 11,1 C 59 % 1018,7 hPa 0,0 l/m 0 min 0 min 46 W/m 19,3 km/h (3 Bft) 100,00 %
06.04.2020 09:12 12,1 C 12,2 C 11,1 C 59 % 1018,7 hPa 0,0 l/m 0 min 0 min 47 W/m 22,5 km/h (4 Bft) 100,00 %
06.04.2020 09:14 12,2 C 13,3 C 11,1 C 59 % 1018,7 hPa 0,0 l/m 0 min 0 min 111 W/m 22,5 km/h (4 Bft) 97,87 %
06.04.2020 09:16 12,3 C 13,9 C 11,7 C 59 % 1018,7 hPa 0,0 l/m 2 min 0 min 297 W/m 25,7 km/h (4 Bft) 100,00 %
06.04.2020 09:18 12,4 C 13,3 C 11,7 C 58 % 1018,6 hPa 0,0 l/m 2 min 0 min 330 W/m 22,5 km/h (4 Bft) 100,00 %
06.04.2020 09:20 12,5 C 14,4 C 11,7 C 58 % 1018,7 hPa 0,0 l/m 2 min 0 min 336 W/m 22,5 km/h (4 Bft) 95,74 %
06.04.2020 09:22 12,6 C 15,0 C 11,7 C 58 % 1018,6 hPa 0,0 l/m 2 min 0 min 341 W/m 29,0 km/h (5 Bft) 97,87 %
06.04.2020 09:24 12,7 C 14,4 C 11,7 C 58 % 1018,6 hPa 0,0 l/m 2 min 0 min 348 W/m 25,7 km/h (4 Bft) 100,00 %
06.04.2020 09:26 12,9 C 13,9 C 11,7 C 58 % 1018,6 hPa 0,0 l/m 2 min 0 min 353 W/m 22,5 km/h (4 Bft) 97,87 %
06.04.2020 09:28 13,0 C 14,4 C 12,2 C 58 % 1018,7 hPa 0,0 l/m 2 min 0 min 360 W/m 32,2 km/h (5 Bft) 93,48 %
06.04.2020 09:30 13,2 C 15,6 C 12,2 C 58 % 1018,6 hPa 0,0 l/m 2 min 0 min 367 W/m 22,5 km/h (4 Bft) 95,74 %
06.04.2020 09:32 13,3 C 16,1 C 12,2 C 58 % 1018,7 hPa 0,0 l/m 2 min 0 min 372 W/m 25,7 km/h (4 Bft) 95,74 %
06.04.2020 09:34 13,4 C 16,7 C 12,2 C 57 % 1018,7 hPa 0,0 l/m 2 min 0 min 378 W/m 22,5 km/h (4 Bft) 95,74 %
06.04.2020 09:36 13,6 C 16,7 C 12,2 C 57 % 1018,7 hPa 0,0 l/m 2 min 0 min 384 W/m 22,5 km/h (4 Bft) 95,74 %
06.04.2020 09:38 13,7 C 16,7 C 12,2 C 57 % 1018,7 hPa 0,0 l/m 2 min 0 min 391 W/m 3,2 km/h (1 Bft) 91,49 %
06.04.2020 09:40 13,8 C 17,2 C 12,8 C 57 % 1018,7 hPa 0,0 l/m 2 min 0 min 397 W/m 19,3 km/h (3 Bft) 95,65 %
06.04.2020 09:42 14,0 C 17,2 C 14,4 C 56 % 1018,7 hPa 0,0 l/m 2 min 0 min 402 W/m 25,7 km/h (4 Bft) 95,74 %
06.04.2020 09:44 14,1 C 17,8 C 17,2 C 56 % 1018,7 hPa 0,0 l/m 2 min 0 min 408 W/m 19,3 km/h (3 Bft) 95,74 %
06.04.2020 09:46 14,3 C 18,3 C 18,9 C 56 % 1018,8 hPa 0,0 l/m 2 min 0 min 415 W/m 3,2 km/h (1 Bft) 95,74 %
06.04.2020 09:48 14,3 C 18,3 C 20,0 C 56 % 1018,8 hPa 0,0 l/m 2 min 0 min 420 W/m 22,5 km/h (4 Bft) 93,62 %
06.04.2020 09:50 14,4 C 17,8 C 20,0 C 55 % 1018,8 hPa 0,0 l/m 2 min 0 min 424 W/m 25,7 km/h (4 Bft) 93,62 %
06.04.2020 09:52 14,6 C 18,3 C 20,0 C 55 % 1018,8 hPa 0,0 l/m 2 min 0 min 431 W/m 25,7 km/h (4 Bft) 95,65 %
06.04.2020 09:54 14,7 C 17,8 C 20,0 C 55 % 1018,8 hPa 0,0 l/m 2 min 0 min 436 W/m 22,5 km/h (4 Bft) 93,62 %
06.04.2020 09:56 14,8 C 17,8 C 20,0 C 54 % 1018,8 hPa 0,0 l/m 2 min 0 min 443 W/m 35,4 km/h (5 Bft) 93,62 %
06.04.2020 09:58 14,9 C 18,3 C 20,6 C 55 % 1018,9 hPa 0,0 l/m 2 min 0 min 447 W/m 22,5 km/h (4 Bft) 95,74 %
06.04.2020 10:00 15,1 C 18,3 C 20,6 C 54 % 1018,9 hPa 0,0 l/m 2 min 0 min 452 W/m 19,3 km/h (3 Bft) 95,74 %
06.04.2020 10:02 15,2 C 18,3 C 20,6 C 54 % 1018,9 hPa 0,0 l/m 2 min 0 min 458 W/m 29,0 km/h (5 Bft) 95,74 %
06.04.2020 10:04 15,3 C 18,9 C 21,7 C 55 % 1018,9 hPa 0,0 l/m 2 min 0 min 462 W/m 16,1 km/h (3 Bft) 93,62 %
06.04.2020 10:06 15,4 C 18,9 C 21,7 C 54 % 1019,0 hPa 0,0 l/m 2 min 0 min 468 W/m 19,3 km/h (3 Bft) 95,74 %
06.04.2020 10:08 15,5 C 18,9 C 21,7 C 54 % 1018,9 hPa 0,0 l/m 2 min 0 min 474 W/m 19,3 km/h (3 Bft) 97,87 %
06.04.2020 10:10 15,6 C 18,3 C 21,1 C 54 % 1018,9 hPa 0,0 l/m 2 min 0 min 478 W/m 29,0 km/h (5 Bft) 93,62 %
06.04.2020 10:12 15,7 C 18,9 C 21,1 C 54 % 1019,0 hPa 0,0 l/m 2 min 0 min 483 W/m 29,0 km/h (5 Bft) 93,48 %
06.04.2020 10:14 15,8 C 18,9 C 21,7 C 54 % 1019,0 hPa 0,0 l/m 2 min 0 min 488 W/m 16,1 km/h (3 Bft) 97,78 %
06.04.2020 10:16 15,8 C 19,4 C 22,2 C 54 % 1019,0 hPa 0,0 l/m 2 min 0 min 493 W/m 22,5 km/h (4 Bft) 97,87 %
06.04.2020 10:18 15,9 C 19,4 C 22,2 C 54 % 1019,0 hPa 0,0 l/m 2 min 0 min 497 W/m 22,5 km/h (4 Bft) 97,87 %
06.04.2020 10:20 16,0 C 20,0 C 22,2 C 54 % 1019,0 hPa 0,0 l/m 2 min 0 min 503 W/m 19,3 km/h (3 Bft) 97,87 %
06.04.2020 10:22 16,1 C 20,0 C 22,8 C 54 % 1019,1 hPa 0,0 l/m 2 min 0 min 508 W/m 22,5 km/h (4 Bft) 97,87 %
06.04.2020 10:24 16,2 C 20,0 C 22,2 C 54 % 1019,1 hPa 0,0 l/m 2 min 0 min 514 W/m 16,1 km/h (3 Bft) 95,65 %
06.04.2020 10:26 16,3 C 20,0 C 23,3 C 53 % 1019,1 hPa 0,0 l/m 2 min 0 min 520 W/m 22,5 km/h (4 Bft) 97,87 %
06.04.2020 10:28 16,4 C 20,6 C 23,3 C 53 % 1019,1 hPa 0,0 l/m 2 min 0 min 526 W/m 22,5 km/h (4 Bft) 97,87 %
06.04.2020 10:30 16,6 C 20,0 C 23,3 C 53 % 1019,1 hPa 0,0 l/m 2 min 0 min 529 W/m 19,3 km/h (3 Bft) 97,87 %
06.04.2020 10:32 16,7 C 20,6 C 23,9 C 53 % 1019,2 hPa 0,0 l/m 2 min 0 min 535 W/m 22,5 km/h (4 Bft) 97,87 %
06.04.2020 10:34 16,8 C 20,6 C 22,8 C 52 % 1019,1 hPa 0,0 l/m 2 min 0 min 541 W/m 16,1 km/h (3 Bft) 95,74 %
06.04.2020 10:36 16,9 C 20,6 C 23,3 C 52 % 1019,1 hPa 0,0 l/m 2 min 0 min 545 W/m 16,1 km/h (3 Bft) 97,83 %
06.04.2020 10:38 17,0 C 20,6 C 23,3 C 52 % 1019,1 hPa 0,0 l/m 2 min 0 min 550 W/m 22,5 km/h (4 Bft) 93,62 %
06.04.2020 10:40 17,1 C 20,0 C 23,3 C 51 % 1019,2 hPa 0,0 l/m 2 min 0 min 555 W/m 25,7 km/h (4 Bft) 97,87 %
06.04.2020 10:42 17,2 C 20,6 C 23,9 C 51 % 1019,2 hPa 0,0 l/m 2 min 0 min 559 W/m 19,3 km/h (3 Bft) 97,87 %
06.04.2020 10:44 17,3 C 20,6 C 23,3 C 51 % 1019,2 hPa 0,0 l/m 2 min 0 min 564 W/m 29,0 km/h (5 Bft) 95,74 %
06.04.2020 10:46 17,3 C 21,1 C 23,9 C 51 % 1019,2 hPa 0,0 l/m 2 min 0 min 570 W/m 19,3 km/h (3 Bft) 97,87 %
06.04.2020 10:48 17,4 C 20,6 C 23,9 C 51 % 1019,2 hPa 0,0 l/m 2 min 0 min 575 W/m 22,5 km/h (4 Bft) 97,83 %
06.04.2020 10:50 17,6 C 21,1 C 23,9 C 51 % 1019,2 hPa 0,0 l/m 2 min 0 min 580 W/m 22,5 km/h (4 Bft) 97,87 %
06.04.2020 10:52 17,6 C 21,7 C 23,3 C 51 % 1019,2 hPa 0,0 l/m 2 min 0 min 585 W/m 22,5 km/h (4 Bft) 95,74 %
06.04.2020 10:54 17,7 C 21,1 C 21,1 C 50 % 1019,2 hPa 0,0 l/m 2 min 0 min 590 W/m 19,3 km/h (3 Bft) 95,74 %
06.04.2020 10:56 17,8 C 21,7 C 20,6 C 51 % 1019,2 hPa 0,0 l/m 2 min 0 min 593 W/m 19,3 km/h (3 Bft) 95,74 %
06.04.2020 10:58 17,9 C 21,1 C 19,4 C 50 % 1019,2 hPa 0,0 l/m 2 min 0 min 598 W/m 19,3 km/h (3 Bft) 97,87 %
06.04.2020 11:00 18,0 C 21,7 C 18,9 C 50 % 1019,2 hPa 0,0 l/m 2 min 0 min 604 W/m 19,3 km/h (3 Bft) 97,83 %
06.04.2020 11:02 18,1 C 21,7 C 18,3 C 50 % 1019,2 hPa 0,0 l/m 2 min 0 min 607 W/m 22,5 km/h (4 Bft) 97,87 %
06.04.2020 11:04 18,2 C 22,2 C 18,3 C 51 % 1019,3 hPa 0,0 l/m 2 min 0 min 613 W/m 19,3 km/h (3 Bft) 95,74 %
06.04.2020 11:06 18,3 C 22,2 C 17,8 C 50 % 1019,3 hPa 0,0 l/m 2 min 0 min 618 W/m 22,5 km/h (4 Bft) 97,87 %
06.04.2020 11:08 18,3 C 22,8 C 18,3 C 50 % 1019,3 hPa 0,0 l/m 2 min 0 min 621 W/m 16,1 km/h (3 Bft) 97,87 %
06.04.2020 11:10 18,4 C 22,2 C 18,3 C 50 % 1019,4 hPa 0,0 l/m 2 min 0 min 625 W/m 22,5 km/h (4 Bft) 97,83 %
06.04.2020 11:12 18,5 C 22,8 C 17,8 C 50 % 1019,4 hPa 0,0 l/m 2 min 0 min 629 W/m 22,5 km/h (4 Bft) 97,87 %
06.04.2020 11:14 18,6 C 22,8 C 17,8 C 49 % 1019,4 hPa 0,0 l/m 2 min 0 min 635 W/m 22,5 km/h (4 Bft) 97,87 %
06.04.2020 11:16 18,7 C 22,8 C 18,3 C 49 % 1019,5 hPa 0,0 l/m 2 min 0 min 637 W/m 16,1 km/h (3 Bft) 95,74 %
06.04.2020 11:18 18,8 C 22,2 C 18,3 C 47 % 1019,5 hPa 0,0 l/m 2 min 0 min 643 W/m 32,2 km/h (5 Bft) 97,87 %
06.04.2020 11:20 18,9 C 23,3 C 18,3 C 48 % 1019,5 hPa 0,0 l/m 2 min 0 min 648 W/m 19,3 km/h (3 Bft) 97,87 %
06.04.2020 11:22 19,1 C 22,8 C 18,3 C 47 % 1019,6 hPa 0,0 l/m 2 min 0 min 652 W/m 22,5 km/h (4 Bft) 97,83 %
06.04.2020 11:24 19,2 C 22,8 C 18,3 C 47 % 1019,6 hPa 0,0 l/m 2 min 0 min 654 W/m 25,7 km/h (4 Bft) 97,87 %
06.04.2020 11:26 19,2 C 22,8 C 18,3 C 47 % 1019,6 hPa 0,0 l/m 2 min 0 min 659 W/m 22,5 km/h (4 Bft) 95,74 %
06.04.2020 11:28 19,3 C 23,3 C 18,3 C 47 % 1019,6 hPa 0,0 l/m 2 min 0 min 662 W/m 25,7 km/h (4 Bft) 97,87 %
06.04.2020 11:30 19,4 C 23,9 C 18,9 C 47 % 1019,6 hPa 0,0 l/m 2 min 0 min 667 W/m 16,1 km/h (3 Bft) 95,74 %
06.04.2020 11:32 19,6 C 23,9 C 18,9 C 47 % 1019,5 hPa 0,0 l/m 2 min 0 min 672 W/m 19,3 km/h (3 Bft) 95,74 %
06.04.2020 11:34 19,7 C 23,9 C 18,9 C 46 % 1019,5 hPa 0,0 l/m 2 min 0 min 675 W/m 16,1 km/h (3 Bft) 97,83 %
06.04.2020 11:36 19,8 C 23,9 C 18,9 C 47 % 1019,5 hPa 0,0 l/m 2 min 0 min 679 W/m 19,3 km/h (3 Bft) 97,87 %
06.04.2020 11:38 19,9 C 24,4 C 18,9 C 46 % 1019,5 hPa 0,0 l/m 2 min 0 min 681 W/m 22,5 km/h (4 Bft) 97,87 %
06.04.2020 11:40 20,0 C 25,0 C 19,4 C 46 % 1019,5 hPa 0,0 l/m 2 min 0 min 683 W/m 16,1 km/h (3 Bft) 97,87 %
06.04.2020 11:42 20,1 C 25,0 C 19,4 C 46 % 1019,5 hPa 0,0 l/m 2 min 0 min 689 W/m 22,5 km/h (4 Bft) 97,87 %
06.04.2020 11:44 20,2 C 23,9 C 19,4 C 45 % 1019,5 hPa 0,0 l/m 2 min 0 min 692 W/m 25,7 km/h (4 Bft) 97,87 %
06.04.2020 11:46 20,3 C 23,3 C 18,9 C 45 % 1019,5 hPa 0,0 l/m 2 min 0 min 696 W/m 25,7 km/h (4 Bft) 97,83 %
06.04.2020 11:48 20,3 C 23,3 C 18,9 C 45 % 1019,5 hPa 0,0 l/m 2 min 0 min 697 W/m 19,3 km/h (3 Bft) 97,87 %
06.04.2020 11:50 20,4 C 23,9 C 18,9 C 45 % 1019,5 hPa 0,0 l/m 2 min 0 min 701 W/m 19,3 km/h (3 Bft) 95,74 %
06.04.2020 11:52 20,4 C 24,4 C 19,4 C 45 % 1019,4 hPa 0,0 l/m 2 min 0 min 705 W/m 22,5 km/h (4 Bft) 95,74 %
06.04.2020 11:54 20,5 C 23,9 C 19,4 C 45 % 1019,5 hPa 0,0 l/m 2 min 0 min 708 W/m 19,3 km/h (3 Bft) 95,74 %
06.04.2020 11:56 20,6 C 23,3 C 19,4 C 45 % 1019,5 hPa 0,0 l/m 2 min 0 min 709 W/m 29,0 km/h (5 Bft) 93,48 %
06.04.2020 11:58 20,6 C 23,9 C 19,4 C 45 % 1019,4 hPa 0,0 l/m 2 min 0 min 716 W/m 19,3 km/h (3 Bft) 95,74 %
06.04.2020 12:00 20,7 C 23,9 C 19,4 C 45 % 1019,4 hPa 0,0 l/m 2 min 0 min 718 W/m 22,5 km/h (4 Bft) 95,74 %
06.04.2020 12:02 20,7 C 24,4 C 19,4 C 45 % 1019,4 hPa 0,0 l/m 2 min 0 min 721 W/m 16,1 km/h (3 Bft) 95,74 %
06.04.2020 12:04 20,8 C 25,6 C 19,4 C 46 % 1019,4 hPa 0,0 l/m 2 min 0 min 722 W/m 12,9 km/h (3 Bft) 97,87 %
06.04.2020 12:08 20,9 C 25,0 C 20,0 C 46 % 1019,3 hPa 0,0 l/m 4 min 0 min 726 W/m 22,5 km/h (4 Bft) 97,87 %
06.04.2020 12:10 21,1 C 25,0 C 20,0 C 45 % 1019,3 hPa 0,0 l/m 2 min 0 min 733 W/m 16,1 km/h (3 Bft) 97,83 %
06.04.2020 12:12 21,1 C 26,1 C 20,6 C 45 % 1019,3 hPa 0,0 l/m 2 min 0 min 736 W/m 19,3 km/h (3 Bft) 97,87 %
06.04.2020 12:14 21,2 C 26,1 C 20,6 C 45 % 1019,4 hPa 0,0 l/m 2 min 0 min 740 W/m 12,9 km/h (3 Bft) 95,74 %
06.04.2020 12:16 21,3 C 25,6 C 20,0 C 44 % 1019,4 hPa 0,0 l/m 2 min 0 min 742 W/m 19,3 km/h (3 Bft) 95,74 %
06.04.2020 12:18 21,4 C 25,6 C 20,0 C 44 % 1019,4 hPa 0,0 l/m 2 min 0 min 743 W/m 16,1 km/h (3 Bft) 97,87 %
06.04.2020 12:20 21,5 C 24,4 C 20,0 C 42 % 1019,4 hPa 0,0 l/m 2 min 0 min 749 W/m 32,2 km/h (5 Bft) 95,65 %
06.04.2020 12:22 21,5 C 24,4 C 20,0 C 42 % 1019,4 hPa 0,0 l/m 2 min 0 min 751 W/m 25,7 km/h (4 Bft) 95,74 %
06.04.2020 12:24 21,6 C 23,9 C 20,0 C 42 % 1019,4 hPa 0,0 l/m 2 min 0 min 756 W/m 38,6 km/h (5 Bft) 95,74 %
06.04.2020 12:26 21,6 C 25,0 C 20,0 C 42 % 1019,4 hPa 0,0 l/m 2 min 0 min 758 W/m 25,7 km/h (4 Bft) 95,74 %
06.04.2020 12:28 21,6 C 25,0 C 20,6 C 42 % 1019,4 hPa 0,0 l/m 2 min 0 min 760 W/m 25,7 km/h (4 Bft) 93,62 %
06.04.2020 12:30 21,6 C 25,0 C 20,0 C 41 % 1019,4 hPa 0,0 l/m 2 min 0 min 761 W/m 25,7 km/h (4 Bft) 95,74 %
06.04.2020 12:32 21,7 C 25,6 C 20,6 C 42 % 1019,4 hPa 0,0 l/m 2 min 0 min 765 W/m 25,7 km/h (4 Bft) 93,48 %
06.04.2020 12:34 21,7 C 26,1 C 20,6 C 42 % 1019,3 hPa 0,0 l/m 2 min 0 min 766 W/m 22,5 km/h (4 Bft) 97,87 %
06.04.2020 12:36 21,8 C 25,6 C 20,6 C 41 % 1019,4 hPa 0,0 l/m 2 min 0 min 768 W/m 22,5 km/h (4 Bft) 95,74 %
06.04.2020 12:38 21,8 C 26,7 C 20,6 C 42 % 1019,4 hPa 0,0 l/m 2 min 0 min 772 W/m 22,5 km/h (4 Bft) 97,87 %
06.04.2020 12:40 21,9 C 26,1 C 21,1 C 41 % 1019,4 hPa 0,0 l/m 2 min 0 min 774 W/m 25,7 km/h (4 Bft) 97,87 %
06.04.2020 12:42 22,0 C 26,1 C 20,6 C 41 % 1019,5 hPa 0,0 l/m 2 min 0 min 776 W/m 19,3 km/h (3 Bft) 95,74 %
06.04.2020 12:44 22,1 C 25,6 C 20,6 C 41 % 1019,4 hPa 0,0 l/m 2 min 0 min 778 W/m 32,2 km/h (5 Bft) 97,83 %
06.04.2020 12:46 22,1 C 26,1 C 20,6 C 41 % 1019,4 hPa 0,0 l/m 2 min 0 min 781 W/m 38,6 km/h (5 Bft) 93,62 %
06.04.2020 12:48 22,2 C 26,7 C 21,1 C 41 % 1019,5 hPa 0,0 l/m 2 min 0 min 782 W/m 22,5 km/h (4 Bft) 97,87 %
06.04.2020 12:50 22,2 C 25,0 C 21,1 C 40 % 1019,5 hPa 0,0 l/m 2 min 0 min 784 W/m 35,4 km/h (5 Bft) 100,00 %
06.04.2020 12:52 22,3 C 25,0 C 21,1 C 40 % 1019,5 hPa 0,0 l/m 2 min 0 min 784 W/m 35,4 km/h (5 Bft) 100,00 %
06.04.2020 12:54 22,3 C 25,6 C 21,1 C 40 % 1019,5 hPa 0,0 l/m 2 min 0 min 787 W/m 22,5 km/h (4 Bft) 97,87 %
06.04.2020 12:56 22,3 C 26,1 C 21,1 C 40 % 1019,4 hPa 0,0 l/m 2 min 0 min 789 W/m 19,3 km/h (3 Bft) 97,83 %
06.04.2020 12:58 22,4 C 26,1 C 21,1 C 40 % 1019,6 hPa 0,0 l/m 2 min 0 min 789 W/m 19,3 km/h (3 Bft) 98,15 %
06.04.2020 13:00 22,4 C 27,2 C 21,1 C 40 % 1019,5 hPa 0,0 l/m 2 min 0 min 791 W/m 12,9 km/h (3 Bft) 97,87 %
06.04.2020 13:02 22,5 C 26,7 C 21,1 C 40 % 1019,5 hPa 0,0 l/m 2 min 0 min 793 W/m 22,5 km/h (4 Bft) 97,87 %
06.04.2020 13:04 22,6 C 26,1 C 21,1 C 39 % 1019,4 hPa 0,0 l/m 2 min 0 min 792 W/m 32,2 km/h (5 Bft) 97,87 %
06.04.2020 13:06 22,6 C 26,7 C 21,1 C 40 % 1019,4 hPa 0,0 l/m 2 min 0 min 793 W/m 19,3 km/h (3 Bft) 97,87 %
06.04.2020 13:08 22,6 C 26,7 C 21,1 C 39 % 1019,4 hPa 0,0 l/m 2 min 0 min 795 W/m 32,2 km/h (5 Bft) 97,87 %
06.04.2020 13:10 22,7 C 27,2 C 21,7 C 40 % 1019,4 hPa 0,0 l/m 2 min 0 min 798 W/m 16,1 km/h (3 Bft) 97,83 %
06.04.2020 13:12 22,8 C 26,7 C 21,7 C 40 % 1019,4 hPa 0,0 l/m 2 min 0 min 797 W/m 19,3 km/h (3 Bft) 97,87 %
06.04.2020 13:14 22,8 C 26,7 C 21,7 C 39 % 1019,4 hPa 0,0 l/m 2 min 0 min 801 W/m 19,3 km/h (3 Bft) 95,74 %
06.04.2020 13:16 22,9 C 26,1 C 21,7 C 39 % 1019,5 hPa 0,0 l/m 2 min 0 min 802 W/m 35,4 km/h (5 Bft) 97,87 %
06.04.2020 13:18 22,9 C 26,1 C 21,7 C 39 % 1019,5 hPa 0,0 l/m 2 min 0 min 798 W/m 32,2 km/h (5 Bft) 100,00 %
06.04.2020 13:20 22,9 C 25,6 C 21,1 C 39 % 1019,5 hPa 0,0 l/m 2 min 0 min 800 W/m 25,7 km/h (4 Bft) 100,00 %
06.04.2020 13:22 22,9 C 26,1 C 21,7 C 39 % 1019,5 hPa 0,0 l/m 2 min 0 min 803 W/m 35,4 km/h (5 Bft) 100,00 %
06.04.2020 13:24 22,9 C 26,7 C 21,7 C 40 % 1019,5 hPa 0,0 l/m 2 min 0 min 803 W/m 16,1 km/h (3 Bft) 100,00 %
06.04.2020 13:26 22,9 C 26,7 C 21,7 C 40 % 1019,5 hPa 0,0 l/m 2 min 0 min 802 W/m 25,7 km/h (4 Bft) 100,00 %
06.04.2020 13:28 23,0 C 27,2 C 21,7 C 39 % 1019,5 hPa 0,0 l/m 2 min 0 min 802 W/m 22,5 km/h (4 Bft) 100,00 %
06.04.2020 13:30 23,1 C 26,7 C 21,7 C 40 % 1019,6 hPa 0,0 l/m 2 min 0 min 801 W/m 22,5 km/h (4 Bft) 100,00 %
06.04.2020 13:32 23,1 C 26,7 C 22,2 C 39 % 1019,5 hPa 0,0 l/m 2 min 0 min 803 W/m 22,5 km/h (4 Bft) 100,00 %
06.04.2020 13:34 23,1 C 26,1 C 22,2 C 39 % 1019,6 hPa 0,0 l/m 2 min 0 min 803 W/m 22,5 km/h (4 Bft) 100,00 %
06.04.2020 13:36 23,1 C 26,1 C 22,2 C 39 % 1019,6 hPa 0,0 l/m 2 min 0 min 803 W/m 22,5 km/h (4 Bft) 100,00 %
06.04.2020 13:38 23,1 C 26,1 C 22,8 C 38 % 1019,6 hPa 0,0 l/m 2 min 0 min 805 W/m 41,8 km/h (6 Bft) 100,00 %
06.04.2020 13:40 23,2 C 26,7 C 25,6 C 39 % 1019,5 hPa 0,0 l/m 2 min 0 min 805 W/m 25,7 km/h (4 Bft) 100,00 %
06.04.2020 13:42 23,2 C 26,1 C 26,7 C 39 % 1019,6 hPa 0,0 l/m 2 min 0 min 803 W/m 25,7 km/h (4 Bft) 100,00 %
06.04.2020 13:44 23,2 C 26,1 C 27,2 C 39 % 1019,5 hPa 0,0 l/m 2 min 0 min 805 W/m 29,0 km/h (5 Bft) 100,00 %
06.04.2020 13:46 23,2 C 26,1 C 27,8 C 39 % 1019,6 hPa 0,0 l/m 2 min 0 min 802 W/m 32,2 km/h (5 Bft) 100,00 %
06.04.2020 13:48 23,2 C 26,1 C 28,3 C 38 % 1019,6 hPa 0,0 l/m 2 min 0 min 803 W/m 35,4 km/h (5 Bft) 100,00 %
06.04.2020 13:50 23,2 C 26,1 C 28,3 C 38 % 1019,6 hPa 0,0 l/m 2 min 0 min 804 W/m 29,0 km/h (5 Bft) 100,00 %
06.04.2020 13:52 23,2 C 26,1 C 28,3 C 39 % 1019,7 hPa 0,0 l/m 2 min 0 min 802 W/m 35,4 km/h (5 Bft) 100,00 %
06.04.2020 13:54 23,2 C 26,7 C 28,9 C 39 % 1019,6 hPa 0,0 l/m 2 min 0 min 802 W/m 19,3 km/h (3 Bft) 100,00 %
06.04.2020 13:56 23,2 C 26,7 C 29,4 C 39 % 1019,6 hPa 0,0 l/m 2 min 0 min 799 W/m 22,5 km/h (4 Bft) 100,00 %
06.04.2020 13:58 23,2 C 26,7 C 28,9 C 39 % 1019,6 hPa 0,0 l/m 2 min 0 min 800 W/m 25,7 km/h (4 Bft) 100,00 %
06.04.2020 14:00 23,3 C 27,2 C 29,4 C 39 % 1019,7 hPa 0,0 l/m 2 min 0 min 799 W/m 25,7 km/h (4 Bft) 100,00 %
06.04.2020 14:02 23,3 C 26,7 C 29,4 C 38 % 1019,6 hPa 0,0 l/m 2 min 0 min 797 W/m 25,7 km/h (4 Bft) 100,00 %
06.04.2020 14:04 23,3 C 27,2 C 30,0 C 39 % 1019,6 hPa 0,0 l/m 2 min 0 min 799 W/m 25,7 km/h (4 Bft) 100,00 %
06.04.2020 14:06 23,4 C 26,7 C 29,4 C 38 % 1019,7 hPa 0,0 l/m 2 min 0 min 800 W/m 32,2 km/h (5 Bft) 100,00 %
06.04.2020 14:08 23,4 C 26,1 C 28,9 C 38 % 1019,8 hPa 0,0 l/m 2 min 0 min 796 W/m 35,4 km/h (5 Bft) 97,87 %
06.04.2020 14:10 23,4 C 26,1 C 28,9 C 38 % 1019,7 hPa 0,0 l/m 2 min 0 min 796 W/m 29,0 km/h (5 Bft) 100,00 %
06.04.2020 14:12 23,4 C 26,7 C 28,9 C 38 % 1019,8 hPa 0,0 l/m 2 min 0 min 795 W/m 32,2 km/h (5 Bft) 100,00 %
06.04.2020 14:14 23,4 C 26,7 C 28,3 C 38 % 1019,6 hPa 0,0 l/m 2 min 0 min 791 W/m 25,7 km/h (4 Bft) 100,00 %
06.04.2020 14:16 23,4 C 26,7 C 28,9 C 38 % 1019,7 hPa 0,0 l/m 2 min 0 min 788 W/m 19,3 km/h (3 Bft) 100,00 %
06.04.2020 14:18 23,4 C 26,7 C 30,0 C 39 % 1019,7 hPa 0,0 l/m 2 min 0 min 788 W/m 22,5 km/h (4 Bft) 100,00 %
06.04.2020 14:20 23,5 C 26,7 C 30,0 C 39 % 1019,6 hPa 0,0 l/m 2 min 0 min 788 W/m 29,0 km/h (5 Bft) 100,00 %
06.04.2020 14:22 23,5 C 26,7 C 30,0 C 39 % 1019,7 hPa 0,0 l/m 2 min 0 min 789 W/m 22,5 km/h (4 Bft) 97,87 %
06.04.2020 14:24 23,6 C 26,1 C 28,9 C 37 % 1019,7 hPa 0,0 l/m 2 min 0 min 788 W/m 41,8 km/h (6 Bft) 97,87 %
06.04.2020 14:26 23,6 C 26,1 C 28,9 C 38 % 1019,7 hPa 0,0 l/m 2 min 0 min 785 W/m 22,5 km/h (4 Bft) 97,87 %
06.04.2020 14:28 23,6 C 26,1 C 28,9 C 38 % 1019,7 hPa 0,0 l/m 2 min 0 min 786 W/m 22,5 km/h (4 Bft) 95,74 %
06.04.2020 14:30 23,6 C 26,7 C 29,4 C 38 % 1019,7 hPa 0,0 l/m 2 min 0 min 781 W/m 22,5 km/h (4 Bft) 97,83 %
06.04.2020 14:32 23,6 C 26,1 C 28,9 C 38 % 1019,8 hPa 0,0 l/m 2 min 0 min 782 W/m 32,2 km/h (5 Bft) 97,87 %
06.04.2020 14:34 23,7 C 27,2 C 27,2 C 38 % 1019,8 hPa 0,0 l/m 2 min 0 min 781 W/m 22,5 km/h (4 Bft) 97,87 %
06.04.2020 14:36 23,7 C 26,7 C 25,6 C 38 % 1019,8 hPa 0,0 l/m 2 min 0 min 777 W/m 22,5 km/h (4 Bft) 95,74 %
06.04.2020 14:38 23,7 C 26,7 C 24,4 C 38 % 1019,8 hPa 0,0 l/m 2 min 0 min 775 W/m 25,7 km/h (4 Bft) 97,87 %
06.04.2020 14:40 23,8 C 26,7 C 24,4 C 38 % 1019,8 hPa 0,0 l/m 2 min 0 min 772 W/m 22,5 km/h (4 Bft) 97,87 %
06.04.2020 14:42 23,8 C 26,7 C 24,4 C 37 % 1019,8 hPa 0,0 l/m 2 min 0 min 769 W/m 29,0 km/h (5 Bft) 97,83 %
06.04.2020 14:44 23,8 C 26,7 C 23,3 C 37 % 1019,8 hPa 0,0 l/m 2 min 0 min 769 W/m 25,7 km/h (4 Bft) 95,74 %
06.04.2020 14:46 23,8 C 26,7 C 23,3 C 38 % 1019,8 hPa 0,0 l/m 2 min 0 min 767 W/m 22,5 km/h (4 Bft) 95,74 %
06.04.2020 14:48 23,8 C 26,7 C 23,3 C 37 % 1019,9 hPa 0,0 l/m 2 min 0 min 764 W/m 22,5 km/h (4 Bft) 97,87 %
06.04.2020 14:50 23,8 C 26,7 C 23,3 C 38 % 1019,8 hPa 0,0 l/m 2 min 0 min 762 W/m 19,3 km/h (3 Bft) 97,87 %
06.04.2020 14:52 23,8 C 27,2 C 23,9 C 38 % 1019,8 hPa 0,0 l/m 2 min 0 min 761 W/m 19,3 km/h (3 Bft) 97,87 %
06.04.2020 14:54 23,9 C 27,8 C 23,9 C 38 % 1019,8 hPa 0,0 l/m 2 min 0 min 759 W/m 22,5 km/h (4 Bft) 95,65 %
06.04.2020 14:56 23,9 C 28,3 C 23,9 C 38 % 1019,9 hPa 0,0 l/m 2 min 0 min 757 W/m 25,7 km/h (4 Bft) 93,62 %
06.04.2020 14:58 24,0 C 27,8 C 23,9 C 38 % 1019,9 hPa 0,0 l/m 2 min 0 min 757 W/m 16,1 km/h (3 Bft) 95,74 %
06.04.2020 15:00 24,1 C 27,8 C 23,9 C 37 % 1019,9 hPa 0,0 l/m 2 min 0 min 754 W/m 19,3 km/h (3 Bft) 93,62 %
06.04.2020 15:02 24,1 C 28,3 C 23,3 C 38 % 1019,9 hPa 0,0 l/m 2 min 0 min 749 W/m 19,3 km/h (3 Bft) 95,74 %
06.04.2020 15:04 24,2 C 28,3 C 23,9 C 38 % 1019,9 hPa 0,0 l/m 2 min 0 min 747 W/m 16,1 km/h (3 Bft) 95,65 %
06.04.2020 15:06 24,2 C 27,2 C 23,3 C 37 % 1020,0 hPa 0,0 l/m 2 min 0 min 746 W/m 25,7 km/h (4 Bft) 97,87 %
06.04.2020 15:08 24,2 C 27,8 C 23,9 C 37 % 1020,0 hPa 0,0 l/m 2 min 0 min 744 W/m 22,5 km/h (4 Bft) 95,74 %
06.04.2020 15:10 24,3 C 27,2 C 23,9 C 37 % 1019,9 hPa 0,0 l/m 2 min 0 min 739 W/m 19,3 km/h (3 Bft) 97,87 %
06.04.2020 15:12 24,3 C 27,2 C 23,3 C 37 % 1020,0 hPa 0,0 l/m 2 min 0 min 735 W/m 29,0 km/h (5 Bft) 97,87 %
06.04.2020 15:14 24,3 C 26,7 C 23,3 C 37 % 1020,0 hPa 0,0 l/m 2 min 0 min 736 W/m 32,2 km/h (5 Bft) 95,74 %
06.04.2020 15:16 24,3 C 27,2 C 23,3 C 37 % 1019,9 hPa 0,0 l/m 2 min 0 min 734 W/m 19,3 km/h (3 Bft) 97,83 %
06.04.2020 15:18 24,3 C 26,7 C 23,3 C 37 % 1020,0 hPa 0,0 l/m 2 min 0 min 728 W/m 25,7 km/h (4 Bft) 95,74 %
06.04.2020 15:20 24,2 C 26,1 C 23,3 C 37 % 1019,9 hPa 0,0 l/m 2 min 0 min 723 W/m 25,7 km/h (4 Bft) 97,87 %
06.04.2020 15:22 24,2 C 26,1 C 23,3 C 37 % 1020,0 hPa 0,0 l/m 2 min 0 min 720 W/m 29,0 km/h (5 Bft) 97,87 %
06.04.2020 15:24 24,2 C 26,7 C 23,3 C 37 % 1020,0 hPa 0,0 l/m 2 min 0 min 716 W/m 19,3 km/h (3 Bft) 95,74 %
06.04.2020 15:26 24,2 C 27,2 C 23,9 C 37 % 1019,9 hPa 0,0 l/m 2 min 0 min 714 W/m 22,5 km/h (4 Bft) 97,87 %
06.04.2020 15:28 24,2 C 27,2 C 23,9 C 37 % 1019,9 hPa 0,0 l/m 2 min 0 min 710 W/m 16,1 km/h (3 Bft) 97,83 %
06.04.2020 15:30 24,2 C 27,8 C 23,9 C 37 % 1019,9 hPa 0,0 l/m 2 min 0 min 704 W/m 19,3 km/h (3 Bft) 97,87 %
06.04.2020 15:32 24,3 C 27,8 C 23,9 C 37 % 1020,0 hPa 0,0 l/m 2 min 0 min 703 W/m 19,3 km/h (3 Bft) 95,74 %
06.04.2020 15:34 24,3 C 27,8 C 23,9 C 37 % 1020,0 hPa 0,0 l/m 2 min 0 min 701 W/m 19,3 km/h (3 Bft) 95,74 %
06.04.2020 15:36 24,3 C 28,3 C 23,9 C 38 % 1020,0 hPa 0,0 l/m 2 min 0 min 698 W/m 9,7 km/h (2 Bft) 95,74 %
06.04.2020 15:38 24,4 C 27,8 C 23,9 C 38 % 1020,0 hPa 0,0 l/m 2 min 0 min 692 W/m 32,2 km/h (5 Bft) 93,62 %
06.04.2020 15:40 24,4 C 28,3 C 23,9 C 37 % 1020,0 hPa 0,0 l/m 2 min 0 min 689 W/m 19,3 km/h (3 Bft) 95,65 %
06.04.2020 15:42 24,5 C 28,3 C 23,9 C 37 % 1020,0 hPa 0,0 l/m 2 min 0 min 687 W/m 25,7 km/h (4 Bft) 95,74 %
06.04.2020 15:44 24,6 C 27,8 C 23,9 C 37 % 1020,0 hPa 0,0 l/m 2 min 0 min 687 W/m 22,5 km/h (4 Bft) 95,74 %
06.04.2020 15:46 24,6 C 27,2 C 23,3 C 37 % 1020,0 hPa 0,0 l/m 2 min 0 min 683 W/m 19,3 km/h (3 Bft) 97,87 %
06.04.2020 15:48 24,6 C 26,7 C 23,3 C 37 % 1020,0 hPa 0,0 l/m 2 min 0 min 676 W/m 16,1 km/h (3 Bft) 97,87 %
06.04.2020 15:50 24,6 C 26,7 C 23,3 C 37 % 1020,0 hPa 0,0 l/m 2 min 0 min 676 W/m 25,7 km/h (4 Bft) 97,83 %
06.04.2020 15:52 24,6 C 27,2 C 23,9 C 37 % 1019,9 hPa 0,0 l/m 2 min 0 min 672 W/m 25,7 km/h (4 Bft) 97,87 %
06.04.2020 15:54 24,6 C 27,2 C 23,9 C 37 % 1020,0 hPa 0,0 l/m 2 min 0 min 664 W/m 22,5 km/h (4 Bft) 97,87 %
06.04.2020 15:56 24,6 C 27,2 C 23,9 C 37 % 1020,1 hPa 0,0 l/m 2 min 0 min 659 W/m 16,1 km/h (3 Bft) 97,87 %
06.04.2020 15:58 24,6 C 27,8 C 23,9 C 36 % 1020,0 hPa 0,0 l/m 2 min 0 min 656 W/m 16,1 km/h (3 Bft) 97,87 %
06.04.2020 16:00 24,6 C 27,8 C 23,9 C 36 % 1020,0 hPa 0,0 l/m 2 min 0 min 652 W/m 16,1 km/h (3 Bft) 97,87 %
06.04.2020 16:02 24,6 C 27,8 C 23,9 C 36 % 1020,0 hPa 0,0 l/m 2 min 0 min 648 W/m 22,5 km/h (4 Bft) 97,87 %
06.04.2020 16:04 24,6 C 27,8 C 23,9 C 36 % 1020,0 hPa 0,0 l/m 2 min 0 min 643 W/m 12,9 km/h (3 Bft) 97,83 %
06.04.2020 16:06 24,7 C 27,8 C 23,9 C 37 % 1020,0 hPa 0,0 l/m 2 min 0 min 640 W/m 12,9 km/h (3 Bft) 95,74 %
06.04.2020 16:08 24,7 C 27,2 C 23,9 C 36 % 1020,1 hPa 0,0 l/m 2 min 0 min 634 W/m 22,5 km/h (4 Bft) 97,87 %
06.04.2020 16:10 24,8 C 27,8 C 23,9 C 37 % 1020,1 hPa 0,0 l/m 2 min 0 min 630 W/m 12,9 km/h (3 Bft) 97,87 %
06.04.2020 16:12 24,8 C 27,8 C 23,9 C 36 % 1020,1 hPa 0,0 l/m 2 min 0 min 626 W/m 16,1 km/h (3 Bft) 97,87 %
06.04.2020 16:14 24,8 C 27,8 C 24,4 C 37 % 1020,0 hPa 0,0 l/m 2 min 0 min 623 W/m 16,1 km/h (3 Bft) 97,83 %
06.04.2020 16:16 24,8 C 27,8 C 24,4 C 37 % 1020,1 hPa 0,0 l/m 2 min 0 min 621 W/m 12,9 km/h (3 Bft) 97,87 %
06.04.2020 16:18 24,9 C 27,2 C 25,0 C 36 % 1020,1 hPa 0,0 l/m 2 min 0 min 614 W/m 32,2 km/h (5 Bft) 97,87 %
06.04.2020 16:20 24,8 C 26,7 C 25,0 C 36 % 1020,1 hPa 0,0 l/m 2 min 0 min 608 W/m 22,5 km/h (4 Bft) 97,87 %
06.04.2020 16:22 24,8 C 27,2 C 25,0 C 36 % 1020,0 hPa 0,0 l/m 2 min 0 min 604 W/m 19,3 km/h (3 Bft) 97,87 %
06.04.2020 16:24 24,8 C 27,2 C 25,0 C 36 % 1020,2 hPa 0,0 l/m 2 min 0 min 601 W/m 19,3 km/h (3 Bft) 97,87 %
06.04.2020 16:26 24,8 C 27,2 C 25,0 C 36 % 1020,1 hPa 0,0 l/m 2 min 0 min 600 W/m 25,7 km/h (4 Bft) 97,83 %
06.04.2020 16:28 24,8 C 26,7 C 24,4 C 35 % 1020,1 hPa 0,0 l/m 2 min 0 min 595 W/m 29,0 km/h (5 Bft) 100,00 %
06.04.2020 16:30 24,8 C 27,2 C 24,4 C 35 % 1020,1 hPa 0,0 l/m 2 min 0 min 590 W/m 19,3 km/h (3 Bft) 100,00 %
06.04.2020 16:32 24,7 C 26,7 C 23,9 C 36 % 1020,1 hPa 0,0 l/m 2 min 0 min 586 W/m 22,5 km/h (4 Bft) 100,00 %
06.04.2020 16:34 24,7 C 27,2 C 23,9 C 36 % 1020,1 hPa 0,0 l/m 2 min 0 min 580 W/m 32,2 km/h (5 Bft) 100,00 %
06.04.2020 16:36 24,7 C 26,1 C 23,9 C 35 % 1020,1 hPa 0,0 l/m 2 min 0 min 574 W/m 32,2 km/h (5 Bft) 97,87 %
06.04.2020 16:38 24,6 C 26,1 C 23,3 C 35 % 1020,3 hPa 0,0 l/m 2 min 0 min 570 W/m 35,4 km/h (5 Bft) 100,00 %
06.04.2020 16:40 24,6 C 26,7 C 23,3 C 36 % 1020,2 hPa 0,0 l/m 2 min 0 min 566 W/m 22,5 km/h (4 Bft) 100,00 %
06.04.2020 16:42 24,6 C 27,2 C 23,9 C 36 % 1020,2 hPa 0,0 l/m 2 min 0 min 561 W/m 19,3 km/h (3 Bft) 97,87 %
06.04.2020 16:44 24,6 C 27,2 C 23,9 C 36 % 1020,1 hPa 0,0 l/m 2 min 0 min 552 W/m 19,3 km/h (3 Bft) 100,00 %
06.04.2020 16:46 24,6 C 27,2 C 23,9 C 36 % 1020,2 hPa 0,0 l/m 2 min 0 min 545 W/m 19,3 km/h (3 Bft) 97,87 %
06.04.2020 16:48 24,6 C 27,8 C 24,4 C 37 % 1020,1 hPa 0,0 l/m 2 min 0 min 539 W/m 12,9 km/h (3 Bft) 100,00 %
06.04.2020 16:50 24,7 C 26,7 C 24,4 C 36 % 1020,2 hPa 0,0 l/m 2 min 0 min 536 W/m 29,0 km/h (5 Bft) 100,00 %
06.04.2020 16:52 24,6 C 26,7 C 23,9 C 36 % 1020,2 hPa 0,0 l/m 2 min 0 min 528 W/m 29,0 km/h (5 Bft) 100,00 %
06.04.2020 16:54 24,6 C 27,2 C 24,4 C 36 % 1020,2 hPa 0,0 l/m 2 min 0 min 524 W/m 12,9 km/h (3 Bft) 97,87 %
06.04.2020 16:56 24,7 C 27,2 C 25,0 C 36 % 1020,2 hPa 0,0 l/m 2 min 0 min 519 W/m 12,9 km/h (3 Bft) 97,87 %
06.04.2020 16:58 24,7 C 27,2 C 25,6 C 36 % 1020,2 hPa 0,0 l/m 2 min 0 min 514 W/m 16,1 km/h (3 Bft) 97,87 %
06.04.2020 17:00 24,7 C 27,2 C 26,1 C 36 % 1020,2 hPa 0,0 l/m 2 min 0 min 510 W/m 22,5 km/h (4 Bft) 97,87 %
06.04.2020 17:02 24,7 C 26,7 C 25,6 C 36 % 1020,3 hPa 0,0 l/m 2 min 0 min 504 W/m 25,7 km/h (4 Bft) 97,83 %
06.04.2020 17:04 24,7 C 26,7 C 25,6 C 36 % 1020,3 hPa 0,0 l/m 2 min 0 min 498 W/m 25,7 km/h (4 Bft) 97,87 %
06.04.2020 17:06 24,7 C 27,2 C 25,0 C 36 % 1020,2 hPa 0,0 l/m 2 min 0 min 491 W/m 19,3 km/h (3 Bft) 93,62 %
06.04.2020 17:08 24,7 C 27,2 C 26,1 C 36 % 1020,3 hPa 0,0 l/m 2 min 0 min 487 W/m 12,9 km/h (3 Bft) 95,74 %
06.04.2020 17:10 24,7 C 27,8 C 27,2 C 36 % 1020,3 hPa 0,0 l/m 2 min 0 min 481 W/m 6,4 km/h (2 Bft) 97,87 %
06.04.2020 17:12 24,8 C 27,8 C 27,8 C 36 % 1020,3 hPa 0,0 l/m 2 min 0 min 475 W/m 16,1 km/h (3 Bft) 97,83 %
06.04.2020 17:14 24,8 C 27,2 C 28,3 C 37 % 1020,3 hPa 0,0 l/m 2 min 0 min 471 W/m 22,5 km/h (4 Bft) 95,74 %
06.04.2020 17:16 24,9 C 27,2 C 28,3 C 37 % 1020,3 hPa 0,0 l/m 2 min 0 min 465 W/m 12,9 km/h (3 Bft) 97,87 %
06.04.2020 17:18 24,9 C 26,7 C 27,8 C 36 % 1020,3 hPa 0,0 l/m 2 min 0 min 459 W/m 16,1 km/h (3 Bft) 97,87 %
06.04.2020 17:20 24,9 C 27,2 C 28,3 C 37 % 1020,3 hPa 0,0 l/m 2 min 0 min 450 W/m 12,9 km/h (3 Bft) 97,87 %
06.04.2020 17:22 24,9 C 26,7 C 27,8 C 36 % 1020,3 hPa 0,0 l/m 2 min 0 min 445 W/m 12,9 km/h (3 Bft) 95,74 %
06.04.2020 17:24 24,9 C 26,7 C 27,8 C 36 % 1020,3 hPa 0,0 l/m 2 min 0 min 439 W/m 12,9 km/h (3 Bft) 97,83 %
06.04.2020 17:26 24,9 C 26,7 C 27,8 C 36 % 1020,3 hPa 0,0 l/m 2 min 0 min 433 W/m 16,1 km/h (3 Bft) 97,87 %
06.04.2020 17:28 24,9 C 26,1 C 26,7 C 36 % 1020,3 hPa 0,0 l/m 2 min 0 min 425 W/m 22,5 km/h (4 Bft) 97,87 %
06.04.2020 17:30 24,9 C 26,1 C 25,0 C 35 % 1020,4 hPa 0,0 l/m 2 min 0 min 414 W/m 29,0 km/h (5 Bft) 97,87 %
06.04.2020 17:32 24,8 C 26,1 C 24,4 C 35 % 1020,4 hPa 0,0 l/m 2 min 0 min 406 W/m 16,1 km/h (3 Bft) 97,87 %
06.04.2020 17:34 24,8 C 26,7 C 23,9 C 36 % 1020,3 hPa 0,0 l/m 2 min 0 min 405 W/m 6,4 km/h (2 Bft) 97,87 %
06.04.2020 17:36 24,8 C 26,1 C 23,3 C 36 % 1020,4 hPa 0,0 l/m 2 min 0 min 401 W/m 12,9 km/h (3 Bft) 97,83 %
06.04.2020 17:38 24,8 C 26,7 C 23,3 C 36 % 1020,3 hPa 0,0 l/m 2 min 0 min 398 W/m 12,9 km/h (3 Bft) 100,00 %
06.04.2020 17:40 24,8 C 26,1 C 22,8 C 35 % 1020,4 hPa 0,0 l/m 2 min 0 min 394 W/m 16,1 km/h (3 Bft) 97,87 %
06.04.2020 17:42 24,8 C 26,1 C 22,8 C 35 % 1020,4 hPa 0,0 l/m 2 min 0 min 389 W/m 25,7 km/h (4 Bft) 100,00 %
06.04.2020 17:44 24,7 C 25,6 C 22,8 C 35 % 1020,4 hPa 0,0 l/m 2 min 0 min 382 W/m 25,7 km/h (4 Bft) 100,00 %
06.04.2020 17:46 24,7 C 26,1 C 22,8 C 36 % 1020,4 hPa 0,0 l/m 2 min 0 min 374 W/m 16,1 km/h (3 Bft) 100,00 %
06.04.2020 17:48 24,7 C 26,1 C 22,8 C 36 % 1020,4 hPa 0,0 l/m 2 min 0 min 369 W/m 9,7 km/h (2 Bft) 100,00 %
06.04.2020 17:50 24,7 C 26,7 C 22,8 C 36 % 1020,4 hPa 0,0 l/m 2 min 0 min 362 W/m 16,1 km/h (3 Bft) 95,74 %
06.04.2020 17:52 24,7 C 26,7 C 22,8 C 36 % 1020,5 hPa 0,0 l/m 2 min 0 min 354 W/m 16,1 km/h (3 Bft) 100,00 %
06.04.2020 17:54 24,7 C 26,1 C 22,8 C 36 % 1020,4 hPa 0,0 l/m 2 min 0 min 350 W/m 16,1 km/h (3 Bft) 100,00 %
06.04.2020 17:56 24,7 C 26,1 C 22,2 C 36 % 1020,4 hPa 0,0 l/m 2 min 0 min 344 W/m 12,9 km/h (3 Bft) 100,00 %
06.04.2020 17:58 24,7 C 26,1 C 22,2 C 36 % 1020,4 hPa 0,0 l/m 2 min 0 min 337 W/m 12,9 km/h (3 Bft) 97,87 %
06.04.2020 18:00 24,6 C 26,1 C 22,2 C 36 % 1020,5 hPa 0,0 l/m 2 min 0 min 333 W/m 6,4 km/h (2 Bft) 100,00 %
06.04.2020 18:02 24,6 C 26,1 C 22,2 C 36 % 1020,5 hPa 0,0 l/m 2 min 0 min 329 W/m 16,1 km/h (3 Bft) 97,87 %
06.04.2020 18:04 24,6 C 25,6 C 22,2 C 36 % 1020,5 hPa 0,0 l/m 2 min 0 min 323 W/m 19,3 km/h (3 Bft) 97,87 %
06.04.2020 18:08 24,6 C 25,0 C 21,7 C 35 % 1020,5 hPa 0,0 l/m 4 min 0 min 314 W/m 22,5 km/h (4 Bft) 96,81 %
06.04.2020 18:10 24,4 C 25,0 C 21,7 C 35 % 1020,5 hPa 0,0 l/m 2 min 0 min 303 W/m 25,7 km/h (4 Bft) 95,65 %
06.04.2020 18:12 24,3 C 24,4 C 21,7 C 36 % 1020,6 hPa 0,0 l/m 2 min 0 min 295 W/m 9,7 km/h (2 Bft) 97,87 %
06.04.2020 18:14 24,3 C 23,9 C 21,7 C 36 % 1020,5 hPa 0,0 l/m 2 min 0 min 287 W/m 16,1 km/h (3 Bft) 97,87 %
06.04.2020 18:16 24,3 C 23,3 C 21,7 C 36 % 1020,6 hPa 0,0 l/m 2 min 0 min 279 W/m 16,1 km/h (3 Bft) 97,87 %
06.04.2020 18:18 24,2 C 22,8 C 21,7 C 36 % 1020,6 hPa 0,0 l/m 2 min 0 min 233 W/m 12,9 km/h (3 Bft) 97,87 %
06.04.2020 18:20 24,2 C 22,8 C 21,7 C 37 % 1020,6 hPa 0,0 l/m 0 min 0 min 96 W/m 3,2 km/h (1 Bft) 97,87 %
06.04.2020 18:22 24,1 C 22,8 C 21,7 C 37 % 1020,6 hPa 0,0 l/m 0 min 0 min 65 W/m 9,7 km/h (2 Bft) 97,83 %
06.04.2020 18:24 24,1 C 22,8 C 21,7 C 36 % 1020,6 hPa 0,0 l/m 0 min 0 min 63 W/m 16,1 km/h (3 Bft) 97,87 %
06.04.2020 18:26 24,0 C 22,8 C 21,7 C 37 % 1020,6 hPa 0,0 l/m 0 min 0 min 62 W/m 6,4 km/h (2 Bft) 95,74 %
06.04.2020 18:28 23,9 C 22,8 C 21,1 C 37 % 1020,7 hPa 0,0 l/m 0 min 0 min 62 W/m 16,1 km/h (3 Bft) 97,87 %
06.04.2020 18:30 23,9 C 22,2 C 21,1 C 37 % 1020,7 hPa 0,0 l/m 0 min 0 min 60 W/m 16,1 km/h (3 Bft) 97,87 %
06.04.2020 18:32 23,8 C 22,2 C 21,1 C 37 % 1020,7 hPa 0,0 l/m 0 min 0 min 59 W/m 9,7 km/h (2 Bft) 97,87 %
06.04.2020 18:34 23,7 C 22,2 C 21,1 C 36 % 1020,7 hPa 0,0 l/m 0 min 0 min 58 W/m 19,3 km/h (3 Bft) 97,83 %
06.04.2020 18:36 23,6 C 22,2 C 21,1 C 37 % 1020,8 hPa 0,0 l/m 0 min 0 min 56 W/m 12,9 km/h (3 Bft) 97,87 %
06.04.2020 18:38 23,5 C 22,2 C 21,1 C 37 % 1020,8 hPa 0,0 l/m 0 min 0 min 56 W/m 16,1 km/h (3 Bft) 97,87 %
06.04.2020 18:40 23,4 C 22,2 C 21,1 C 36 % 1020,8 hPa 0,0 l/m 0 min 0 min 54 W/m 29,0 km/h (5 Bft) 97,87 %
06.04.2020 18:42 23,3 C 22,2 C 21,1 C 37 % 1020,8 hPa 0,0 l/m 0 min 0 min 54 W/m 19,3 km/h (3 Bft) 97,87 %
06.04.2020 18:44 23,3 C 22,2 C 21,1 C 37 % 1020,8 hPa 0,0 l/m 0 min 0 min 53 W/m 22,5 km/h (4 Bft) 97,87 %
06.04.2020 18:46 23,2 C 21,7 C 21,1 C 37 % 1020,8 hPa 0,0 l/m 0 min 0 min 53 W/m 12,9 km/h (3 Bft) 97,83 %
06.04.2020 18:48 23,2 C 22,2 C 21,1 C 37 % 1020,9 hPa 0,0 l/m 0 min 0 min 51 W/m 16,1 km/h (3 Bft) 95,74 %
06.04.2020 18:50 23,1 C 21,7 C 21,1 C 37 % 1020,9 hPa 0,0 l/m 0 min 0 min 51 W/m 16,1 km/h (3 Bft) 95,74 %
06.04.2020 18:52 23,1 C 21,7 C 20,6 C 38 % 1020,9 hPa 0,0 l/m 0 min 0 min 50 W/m 6,4 km/h (2 Bft) 95,74 %
06.04.2020 18:54 23,0 C 21,7 C 20,6 C 37 % 1021,0 hPa 0,0 l/m 0 min 0 min 49 W/m 12,9 km/h (3 Bft) 95,74 %
06.04.2020 18:56 23,0 C 21,7 C 20,6 C 38 % 1021,0 hPa 0,0 l/m 0 min 0 min 48 W/m 12,9 km/h (3 Bft) 93,62 %
06.04.2020 18:58 22,9 C 21,7 C 20,6 C 38 % 1021,1 hPa 0,0 l/m 0 min 0 min 47 W/m 9,7 km/h (2 Bft) 97,83 %
06.04.2020 19:00 22,9 C 21,7 C 20,6 C 37 % 1021,1 hPa 0,0 l/m 0 min 0 min 47 W/m 19,3 km/h (3 Bft) 97,87 %
06.04.2020 19:02 22,8 C 21,7 C 20,6 C 38 % 1021,1 hPa 0,0 l/m 0 min 0 min 46 W/m 12,9 km/h (3 Bft) 97,87 %
06.04.2020 19:04 22,8 C 21,1 C 20,6 C 38 % 1021,1 hPa 0,0 l/m 0 min 0 min 45 W/m 12,9 km/h (3 Bft) 97,87 %
06.04.2020 19:06 22,7 C 21,1 C 20,6 C 38 % 1021,1 hPa 0,0 l/m 0 min 0 min 44 W/m 6,4 km/h (2 Bft) 97,87 %
06.04.2020 19:08 22,7 C 21,1 C 20,0 C 38 % 1021,1 hPa 0,0 l/m 0 min 0 min 43 W/m 3,2 km/h (1 Bft) 97,87 %
06.04.2020 19:10 22,6 C 21,1 C 20,0 C 38 % 1021,2 hPa 0,0 l/m 0 min 0 min 42 W/m 6,4 km/h (2 Bft) 97,83 %
06.04.2020 19:12 22,6 C 21,1 C 20,0 C 38 % 1021,2 hPa 0,0 l/m 0 min 0 min 41 W/m 19,3 km/h (3 Bft) 97,87 %
06.04.2020 19:14 22,5 C 21,1 C 20,6 C 38 % 1021,2 hPa 0,0 l/m 0 min 0 min 40 W/m 16,1 km/h (3 Bft) 97,87 %
06.04.2020 19:16 22,4 C 21,1 C 20,6 C 38 % 1021,2 hPa 0,0 l/m 0 min 0 min 39 W/m 16,1 km/h (3 Bft) 97,87 %
06.04.2020 19:18 22,4 C 21,1 C 20,6 C 38 % 1021,2 hPa 0,0 l/m 0 min 0 min 39 W/m 6,4 km/h (2 Bft) 97,87 %
06.04.2020 19:20 22,3 C 21,1 C 20,0 C 38 % 1021,3 hPa 0,0 l/m 0 min 0 min 38 W/m 6,4 km/h (2 Bft) 97,83 %
06.04.2020 19:22 22,3 C 21,1 C 20,0 C 38 % 1021,2 hPa 0,0 l/m 0 min 0 min 37 W/m 3,2 km/h (1 Bft) 95,74 %
06.04.2020 19:24 22,3 C 20,6 C 20,0 C 38 % 1021,2 hPa 0,0 l/m 0 min 0 min 35 W/m 9,7 km/h (2 Bft) 97,87 %
06.04.2020 19:26 22,2 C 20,6 C 20,0 C 38 % 1021,3 hPa 0,0 l/m 0 min 0 min 35 W/m 12,9 km/h (3 Bft) 95,74 %
06.04.2020 19:28 22,2 C 20,6 C 20,0 C 39 % 1021,2 hPa 0,0 l/m 0 min 0 min 33 W/m 6,4 km/h (2 Bft) 95,74 %
06.04.2020 19:30 22,1 C 20,6 C 20,0 C 38 % 1021,3 hPa 0,0 l/m 0 min 0 min 33 W/m 6,4 km/h (2 Bft) 95,74 %
06.04.2020 19:32 22,1 C 20,6 C 19,4 C 39 % 1021,3 hPa 0,0 l/m 0 min 0 min 32 W/m 6,4 km/h (2 Bft) 95,65 %
06.04.2020 19:34 22,1 C 20,6 C 19,4 C 39 % 1021,4 hPa 0,0 l/m 0 min 0 min 30 W/m 6,4 km/h (2 Bft) 91,49 %
06.04.2020 19:36 21,9 C 20,6 C 19,4 C 39 % 1021,4 hPa 0,0 l/m 0 min 0 min 29 W/m 9,7 km/h (2 Bft) 95,74 %
06.04.2020 19:38 21,9 C 20,0 C 19,4 C 39 % 1021,4 hPa 0,0 l/m 0 min 0 min 27 W/m 6,4 km/h (2 Bft) 95,74 %
06.04.2020 19:40 21,8 C 20,0 C 19,4 C 39 % 1021,4 hPa 0,0 l/m 0 min 0 min 26 W/m 12,9 km/h (3 Bft) 95,74 %
06.04.2020 19:42 21,8 C 20,0 C 19,4 C 39 % 1021,5 hPa 0,0 l/m 0 min 0 min 25 W/m 9,7 km/h (2 Bft) 93,62 %
06.04.2020 19:44 21,7 C 20,0 C 19,4 C 39 % 1021,5 hPa 0,0 l/m 0 min 0 min 24 W/m 12,9 km/h (3 Bft) 97,83 %
06.04.2020 19:46 21,7 C 20,0 C 18,9 C 39 % 1021,5 hPa 0,0 l/m 0 min 0 min 23 W/m 6,4 km/h (2 Bft) 97,87 %
06.04.2020 19:48 21,6 C 20,0 C 18,9 C 39 % 1021,5 hPa 0,0 l/m 0 min 0 min 21 W/m 9,7 km/h (2 Bft) 97,87 %
06.04.2020 19:50 21,6 C 19,4 C 18,9 C 40 % 1021,6 hPa 0,0 l/m 0 min 0 min 21 W/m 3,2 km/h (1 Bft) 95,74 %
06.04.2020 19:52 21,5 C 19,4 C 18,9 C 40 % 1021,6 hPa 0,0 l/m 0 min 0 min 19 W/m 6,4 km/h (2 Bft) 97,87 %
06.04.2020 19:54 21,4 C 19,4 C 18,3 C 40 % 1021,6 hPa 0,0 l/m 0 min 0 min 17 W/m 9,7 km/h (2 Bft) 97,87 %
06.04.2020 19:56 21,4 C 19,4 C 18,3 C 40 % 1021,6 hPa 0,0 l/m 0 min 0 min 16 W/m 3,2 km/h (1 Bft) 95,65 %
06.04.2020 19:58 21,3 C 19,4 C 18,3 C 40 % 1021,7 hPa 0,0 l/m 0 min 0 min 13 W/m 6,4 km/h (2 Bft) 93,62 %
06.04.2020 20:00 21,3 C 18,9 C 18,3 C 40 % 1021,7 hPa 0,0 l/m 0 min 0 min 12 W/m 6,4 km/h (2 Bft) 97,87 %
06.04.2020 20:02 21,2 C 18,9 C 18,3 C 41 % 1021,7 hPa 0,0 l/m 0 min 0 min 11 W/m 6,4 km/h (2 Bft) 97,87 %
06.04.2020 20:04 21,1 C 18,9 C 18,3 C 40 % 1021,7 hPa 0,0 l/m 0 min 0 min 9 W/m 6,4 km/h (2 Bft) 97,87 %
06.04.2020 20:06 21,1 C 18,9 C 18,3 C 41 % 1021,7 hPa 0,0 l/m 0 min 0 min 9 W/m 6,4 km/h (2 Bft) 97,87 %
06.04.2020 20:08 21,0 C 18,9 C 18,3 C 41 % 1021,7 hPa 0,0 l/m 0 min 0 min 7 W/m 3,2 km/h (1 Bft) 97,83 %
06.04.2020 20:10 20,9 C 18,9 C 17,8 C 41 % 1021,8 hPa 0,0 l/m 0 min 0 min 7 W/m 6,4 km/h (2 Bft) 97,87 %
06.04.2020 20:12 20,8 C 18,9 C 17,8 C 41 % 1021,8 hPa 0,0 l/m 0 min 0 min 5 W/m 3,2 km/h (1 Bft) 95,74 %
06.04.2020 20:14 20,8 C 18,9 C 17,2 C 41 % 1021,9 hPa 0,0 l/m 0 min 0 min 5 W/m 3,2 km/h (1 Bft) 97,87 %
06.04.2020 20:16 20,7 C 18,3 C 17,2 C 41 % 1021,9 hPa 0,0 l/m 0 min 0 min 5 W/m 3,2 km/h (1 Bft) 100,00 %
06.04.2020 20:18 20,6 C 18,3 C 16,7 C 41 % 1022,0 hPa 0,0 l/m 0 min 0 min 0 W/m 3,2 km/h (1 Bft) 100,00 %
06.04.2020 20:20 20,6 C 18,3 C 16,7 C 42 % 1022,0 hPa 0,0 l/m 0 min 0 min 0 W/m 3,2 km/h (1 Bft) 100,00 %
06.04.2020 20:22 20,5 C 17,8 C 16,1 C 42 % 1022,0 hPa 0,0 l/m 0 min 0 min 0 W/m 3,2 km/h (1 Bft) 97,87 %
06.04.2020 20:24 20,4 C 17,8 C 15,6 C 42 % 1022,0 hPa 0,0 l/m 0 min 0 min 0 W/m 0,0 km/h (0 Bft) 100,00 %
06.04.2020 20:26 20,4 C 17,8 C 15,6 C 43 % 1022,0 hPa 0,0 l/m 0 min 0 min 0 W/m 3,2 km/h (1 Bft) 100,00 %
06.04.2020 20:28 20,3 C 17,8 C 15,6 C 42 % 1022,1 hPa 0,0 l/m 0 min 0 min 0 W/m 6,4 km/h (2 Bft) 100,00 %
06.04.2020 20:30 20,2 C 17,8 C 16,1 C 43 % 1022,2 hPa 0,0 l/m 0 min 0 min 0 W/m 9,7 km/h (2 Bft) 100,00 %
06.04.2020 20:32 20,1 C 17,8 C 16,1 C 42 % 1022,2 hPa 0,0 l/m 0 min 0 min 0 W/m 3,2 km/h (1 Bft) 97,83 %
06.04.2020 20:34 19,9 C 17,2 C 16,1 C 43 % 1022,4 hPa 0,0 l/m 0 min 0 min 0 W/m 9,7 km/h (2 Bft) 100,00 %
06.04.2020 20:36 19,8 C 17,2 C 16,1 C 43 % 1022,4 hPa 0,0 l/m 0 min 0 min 0 W/m 9,7 km/h (2 Bft) 97,87 %
06.04.2020 20:38 19,8 C 17,2 C 16,1 C 43 % 1022,4 hPa 0,0 l/m 0 min 0 min 0 W/m 3,2 km/h (1 Bft) 100,00 %
06.04.2020 20:40 19,7 C 17,2 C 16,1 C 43 % 1022,5 hPa 0,0 l/m 0 min 0 min 0 W/m 9,7 km/h (2 Bft) 100,00 %
06.04.2020 20:42 19,6 C 17,2 C 16,1 C 44 % 1022,5 hPa 0,0 l/m 0 min 0 min 0 W/m 9,7 km/h (2 Bft) 100,00 %
06.04.2020 20:44 19,5 C 16,7 C 16,1 C 44 % 1022,6 hPa 0,0 l/m 0 min 0 min 0 W/m 3,2 km/h (1 Bft) 97,87 %
06.04.2020 20:46 19,4 C 16,7 C 16,1 C 44 % 1022,6 hPa 0,0 l/m 0 min 0 min 0 W/m 6,4 km/h (2 Bft) 100,00 %
06.04.2020 20:48 19,3 C 16,7 C 15,6 C 45 % 1022,6 hPa 0,0 l/m 0 min 0 min 0 W/m 6,4 km/h (2 Bft) 97,87 %
06.04.2020 20:50 19,2 C 16,7 C 15,6 C 45 % 1022,6 hPa 0,0 l/m 0 min 0 min 0 W/m 9,7 km/h (2 Bft) 97,87 %
06.04.2020 20:52 19,1 C 16,7 C 15,6 C 45 % 1022,7 hPa 0,0 l/m 0 min 0 min 0 W/m 6,4 km/h (2 Bft) 97,87 %
06.04.2020 20:54 19,0 C 16,7 C 15,6 C 46 % 1022,7 hPa 0,0 l/m 0 min 0 min 0 W/m 3,2 km/h (1 Bft) 97,83 %
06.04.2020 20:56 18,9 C 16,7 C 15,6 C 46 % 1022,9 hPa 0,0 l/m 0 min 0 min 0 W/m 6,4 km/h (2 Bft) 97,87 %
06.04.2020 20:58 18,8 C 16,7 C 15,6 C 46 % 1023,1 hPa 0,0 l/m 0 min 0 min 0 W/m 19,3 km/h (3 Bft) 95,74 %
06.04.2020 21:00 18,7 C 16,7 C 15,6 C 48 % 1023,1 hPa 0,0 l/m 0 min 0 min 0 W/m 12,9 km/h (3 Bft) 97,87 %
06.04.2020 21:02 18,6 C 16,1 C 15,6 C 51 % 1023,1 hPa 0,0 l/m 0 min 0 min 0 W/m 12,9 km/h (3 Bft) 97,87 %
06.04.2020 21:04 18,4 C 16,1 C 15,6 C 52 % 1023,2 hPa 0,0 l/m 0 min 0 min 0 W/m 16,1 km/h (3 Bft) 97,78 %
06.04.2020 21:06 18,3 C 16,1 C 15,6 C 53 % 1023,4 hPa 0,0 l/m 0 min 0 min 0 W/m 19,3 km/h (3 Bft) 97,87 %
06.04.2020 21:08 18,2 C 15,6 C 15,6 C 55 % 1023,5 hPa 0,0 l/m 0 min 0 min 0 W/m 19,3 km/h (3 Bft) 97,87 %
06.04.2020 21:10 18,0 C 15,6 C 15,6 C 57 % 1023,5 hPa 0,0 l/m 0 min 0 min 0 W/m 19,3 km/h (3 Bft) 97,87 %
06.04.2020 21:12 17,8 C 15,6 C 15,0 C 58 % 1023,6 hPa 0,0 l/m 0 min 0 min 0 W/m 16,1 km/h (3 Bft) 93,62 %
06.04.2020 21:14 17,7 C 15,6 C 15,0 C 58 % 1023,6 hPa 0,0 l/m 0 min 0 min 0 W/m 12,9 km/h (3 Bft) 95,65 %
06.04.2020 21:16 17,6 C 15,6 C 15,0 C 59 % 1023,7 hPa 0,0 l/m 0 min 0 min 0 W/m 19,3 km/h (3 Bft) 97,87 %
06.04.2020 21:18 17,4 C 15,6 C 15,0 C 59 % 1023,8 hPa 0,0 l/m 0 min 0 min 0 W/m 9,7 km/h (2 Bft) 97,87 %
06.04.2020 21:20 17,4 C 15,0 C 15,0 C 60 % 1023,8 hPa 0,0 l/m 0 min 0 min 0 W/m 12,9 km/h (3 Bft) 97,87 %
06.04.2020 21:22 17,3 C 15,0 C 15,0 C 60 % 1023,9 hPa 0,0 l/m 0 min 0 min 0 W/m 12,9 km/h (3 Bft) 97,87 %
06.04.2020 21:24 17,2 C 15,0 C 15,0 C 60 % 1023,9 hPa 0,0 l/m 0 min 0 min 0 W/m 12,9 km/h (3 Bft) 97,87 %
06.04.2020 21:26 17,1 C 15,0 C 14,4 C 61 % 1024,0 hPa 0,0 l/m 0 min 0 min 0 W/m 6,4 km/h (2 Bft) 97,83 %
06.04.2020 21:28 17,1 C 15,0 C 14,4 C 61 % 1024,0 hPa 0,0 l/m 0 min 0 min 0 W/m 16,1 km/h (3 Bft) 97,87 %
06.04.2020 21:30 17,0 C 15,0 C 14,4 C 61 % 1024,1 hPa 0,0 l/m 0 min 0 min 0 W/m 6,4 km/h (2 Bft) 97,87 %
06.04.2020 21:32 16,9 C 14,4 C 14,4 C 61 % 1024,1 hPa 0,0 l/m 0 min 0 min 0 W/m 6,4 km/h (2 Bft) 100,00 %
06.04.2020 21:34 16,8 C 14,4 C 14,4 C 62 % 1024,1 hPa 0,0 l/m 0 min 0 min 0 W/m 9,7 km/h (2 Bft) 100,00 %
06.04.2020 21:36 16,7 C 14,4 C 14,4 C 62 % 1024,1 hPa 0,0 l/m 0 min 0 min 0 W/m 3,2 km/h (1 Bft) 100,00 %
06.04.2020 21:38 16,6 C 14,4 C 13,9 C 62 % 1024,2 hPa 0,0 l/m 0 min 0 min 0 W/m 6,4 km/h (2 Bft) 100,00 %
06.04.2020 21:40 16,6 C 14,4 C 13,9 C 63 % 1024,2 hPa 0,0 l/m 0 min 0 min 0 W/m 9,7 km/h (2 Bft) 97,87 %
06.04.2020 21:42 16,4 C 13,9 C 13,9 C 63 % 1024,3 hPa 0,0 l/m 0 min 0 min 0 W/m 6,4 km/h (2 Bft) 97,87 %
06.04.2020 21:44 16,4 C 13,9 C 13,9 C 63 % 1024,3 hPa 0,0 l/m 0 min 0 min 0 W/m 0,0 km/h (0 Bft) 100,00 %
06.04.2020 21:46 16,3 C 13,9 C 13,9 C 63 % 1024,4 hPa 0,0 l/m 0 min 0 min 0 W/m 16,1 km/h (3 Bft) 97,87 %
06.04.2020 21:48 16,2 C 13,9 C 13,9 C 64 % 1024,4 hPa 0,0 l/m 0 min 0 min 0 W/m 9,7 km/h (2 Bft) 100,00 %
06.04.2020 21:50 16,1 C 13,9 C 13,3 C 64 % 1024,4 hPa 0,0 l/m 0 min 0 min 0 W/m 9,7 km/h (2 Bft) 100,00 %
06.04.2020 21:52 16,0 C 13,9 C 13,3 C 64 % 1024,5 hPa 0,0 l/m 0 min 0 min 0 W/m 6,4 km/h (2 Bft) 97,87 %
06.04.2020 21:54 15,9 C 13,9 C 13,9 C 64 % 1024,5 hPa 0,0 l/m 0 min 0 min 0 W/m 3,2 km/h (1 Bft) 100,00 %
06.04.2020 21:56 15,8 C 13,9 C 13,3 C 65 % 1024,6 hPa 0,0 l/m 0 min 0 min 0 W/m 9,7 km/h (2 Bft) 97,87 %
06.04.2020 21:58 15,8 C 13,9 C 13,3 C 65 % 1024,5 hPa 0,0 l/m 0 min 0 min 0 W/m 3,2 km/h (1 Bft) 100,00 %
06.04.2020 22:00 15,7 C 13,9 C 13,3 C 65 % 1024,5 hPa 0,0 l/m 0 min 0 min 0 W/m 3,2 km/h (1 Bft) 100,00 %
06.04.2020 22:02 15,7 C 13,3 C 13,3 C 65 % 1024,6 hPa 0,0 l/m 0 min 0 min 0 W/m 3,2 km/h (1 Bft) 100,00 %
06.04.2020 22:04 15,6 C 13,3 C 13,3 C 66 % 1024,6 hPa 0,0 l/m 0 min 0 min 0 W/m 3,2 km/h (1 Bft) 100,00 %
06.04.2020 22:06 15,6 C 13,3 C 13,3 C 66 % 1024,6 hPa 0,0 l/m 0 min 0 min 0 W/m 3,2 km/h (1 Bft) 100,00 %
06.04.2020 22:08 15,5 C 13,3 C 12,8 C 66 % 1024,6 hPa 0,0 l/m 0 min 0 min 0 W/m 3,2 km/h (1 Bft) 100,00 %
06.04.2020 22:10 15,4 C 13,3 C 12,8 C 66 % 1024,7 hPa 0,0 l/m 0 min 0 min 0 W/m 0,0 km/h (0 Bft) 100,00 %
06.04.2020 22:12 15,4 C 13,3 C 12,8 C 66 % 1024,7 hPa 0,0 l/m 0 min 0 min 0 W/m 0,0 km/h (0 Bft) 100,00 %
06.04.2020 22:14 15,3 C 13,3 C 12,8 C 66 % 1024,8 hPa 0,0 l/m 0 min 0 min 0 W/m 0,0 km/h (0 Bft) 97,87 %
06.04.2020 22:16 15,3 C 13,3 C 12,8 C 67 % 1024,8 hPa 0,0 l/m 0 min 0 min 0 W/m 0,0 km/h (0 Bft) 100,00 %
06.04.2020 22:18 15,2 C 13,3 C 12,8 C 67 % 1024,8 hPa 0,0 l/m 0 min 0 min 0 W/m 0,0 km/h (0 Bft) 100,00 %
06.04.2020 22:20 15,2 C 13,3 C 12,8 C 67 % 1024,9 hPa 0,0 l/m 0 min 0 min 0 W/m 0,0 km/h (0 Bft) 100,00 %
06.04.2020 22:22 15,1 C 12,8 C 12,8 C 67 % 1025,0 hPa 0,0 l/m 0 min 0 min 0 W/m 0,0 km/h (0 Bft) 100,00 %
06.04.2020 22:24 15,1 C 12,8 C 12,8 C 67 % 1025,0 hPa 0,0 l/m 0 min 0 min 0 W/m 0,0 km/h (0 Bft) 100,00 %
06.04.2020 22:26 15,1 C 12,8 C 12,2 C 67 % 1025,0 hPa 0,0 l/m 0 min 0 min 0 W/m 0,0 km/h (0 Bft) 100,00 %
06.04.2020 22:28 15,0 C 12,8 C 12,2 C 68 % 1025,1 hPa 0,0 l/m 0 min 0 min 0 W/m 0,0 km/h (0 Bft) 100,00 %
06.04.2020 22:30 14,9 C 12,8 C 12,2 C 68 % 1025,1 hPa 0,0 l/m 0 min 0 min 0 W/m 0,0 km/h (0 Bft) 97,87 %
06.04.2020 22:32 14,9 C 12,8 C 12,2 C 68 % 1025,1 hPa 0,0 l/m 0 min 0 min 0 W/m 0,0 km/h (0 Bft) 97,87 %
06.04.2020 22:34 14,8 C 12,8 C 12,2 C 68 % 1025,2 hPa 0,0 l/m 0 min 0 min 0 W/m 0,0 km/h (0 Bft) 97,87 %
06.04.2020 22:36 14,8 C 12,8 C 12,2 C 68 % 1025,2 hPa 0,0 l/m 0 min 0 min 0 W/m 0,0 km/h (0 Bft) 97,78 %
06.04.2020 22:38 14,7 C 12,8 C 12,2 C 68 % 1025,2 hPa 0,0 l/m 0 min 0 min 0 W/m 0,0 km/h (0 Bft) 93,62 %
06.04.2020 22:40 14,7 C 12,8 C 12,2 C 68 % 1025,2 hPa 0,0 l/m 0 min 0 min 0 W/m 0,0 km/h (0 Bft) 89,36 %
06.04.2020 22:42 14,7 C 12,8 C 12,2 C 69 % 1025,3 hPa 0,0 l/m 0 min 0 min 0 W/m 0,0 km/h (0 Bft) 95,74 %
06.04.2020 22:44 14,6 C 12,8 C 12,2 C 69 % 1025,3 hPa 0,0 l/m 0 min 0 min 0 W/m 0,0 km/h (0 Bft) 95,74 %
06.04.2020 22:46 14,6 C 12,8 C 12,2 C 69 % 1025,3 hPa 0,0 l/m 0 min 0 min 0 W/m 0,0 km/h (0 Bft) 95,74 %
06.04.2020 22:48 14,5 C 12,8 C 11,7 C 69 % 1025,3 hPa 0,0 l/m 0 min 0 min 0 W/m 0,0 km/h (0 Bft) 93,48 %
06.04.2020 22:50 14,5 C 12,2 C 11,7 C 69 % 1025,3 hPa 0,0 l/m 0 min 0 min 0 W/m 0,0 km/h (0 Bft) 95,74 %
06.04.2020 22:52 14,4 C 12,2 C 11,7 C 69 % 1025,3 hPa 0,0 l/m 0 min 0 min 0 W/m 0,0 km/h (0 Bft) 93,62 %
06.04.2020 22:54 14,3 C 12,2 C 11,7 C 69 % 1025,3 hPa 0,0 l/m 0 min 0 min 0 W/m 0,0 km/h (0 Bft) 93,62 %
06.04.2020 22:56 14,3 C 12,2 C 11,7 C 69 % 1025,4 hPa 0,0 l/m 0 min 0 min 0 W/m 6,4 km/h (2 Bft) 95,74 %
06.04.2020 22:58 14,3 C 12,2 C 11,7 C 70 % 1025,4 hPa 0,0 l/m 0 min 0 min 0 W/m 3,2 km/h (1 Bft) 95,74 %
06.04.2020 23:00 14,3 C 12,2 C 11,7 C 70 % 1025,5 hPa 0,0 l/m 0 min 0 min 0 W/m 0,0 km/h (0 Bft) 95,65 %
06.04.2020 23:02 14,3 C 12,2 C 11,7 C 70 % 1025,5 hPa 0,0 l/m 0 min 0 min 0 W/m 0,0 km/h (0 Bft) 91,49 %
06.04.2020 23:04 14,3 C 12,2 C 11,7 C 70 % 1025,5 hPa 0,0 l/m 0 min 0 min 0 W/m 0,0 km/h (0 Bft) 91,49 %
06.04.2020 23:06 14,2 C 12,2 C 11,7 C 71 % 1025,6 hPa 0,0 l/m 0 min 0 min 0 W/m 0,0 km/h (0 Bft) 93,62 %
06.04.2020 23:08 14,1 C 12,2 C 11,7 C 71 % 1025,6 hPa 0,0 l/m 0 min 0 min 0 W/m 0,0 km/h (0 Bft) 93,62 %
06.04.2020 23:10 14,1 C 12,2 C 11,7 C 71 % 1025,6 hPa 0,0 l/m 0 min 0 min 0 W/m 0,0 km/h (0 Bft) 91,30 %
06.04.2020 23:12 14,1 C 12,2 C 11,7 C 71 % 1025,6 hPa 0,0 l/m 0 min 0 min 0 W/m 0,0 km/h (0 Bft) 93,62 %
06.04.2020 23:14 14,1 C 12,2 C 11,7 C 71 % 1025,6 hPa 0,0 l/m 0 min 0 min 0 W/m 3,2 km/h (1 Bft) 93,62 %
06.04.2020 23:16 14,0 C 12,2 C 11,7 C 71 % 1025,7 hPa 0,0 l/m 0 min 0 min 0 W/m 3,2 km/h (1 Bft) 93,62 %
06.04.2020 23:18 13,9 C 12,2 C 11,7 C 72 % 1025,7 hPa 0,0 l/m 0 min 0 min 0 W/m 0,0 km/h (0 Bft) 93,62 %
06.04.2020 23:20 13,9 C 12,2 C 11,7 C 72 % 1025,7 hPa 0,0 l/m 0 min 0 min 0 W/m 3,2 km/h (1 Bft) 93,62 %
06.04.2020 23:22 13,9 C 12,2 C 11,7 C 72 % 1025,8 hPa 0,0 l/m 0 min 0 min 0 W/m 0,0 km/h (0 Bft) 91,30 %
06.04.2020 23:24 13,9 C 12,2 C 11,1 C 72 % 1025,8 hPa 0,0 l/m 0 min 0 min 0 W/m 0,0 km/h (0 Bft) 93,62 %
06.04.2020 23:26 13,8 C 12,2 C 11,1 C 72 % 1025,8 hPa 0,0 l/m 0 min 0 min 0 W/m 0,0 km/h (0 Bft) 93,62 %
06.04.2020 23:28 13,8 C 12,2 C 11,1 C 72 % 1025,8 hPa 0,0 l/m 0 min 0 min 0 W/m 0,0 km/h (0 Bft) 93,62 %
06.04.2020 23:30 13,8 C 12,2 C 11,1 C 72 % 1025,8 hPa 0,0 l/m 0 min 0 min 0 W/m 0,0 km/h (0 Bft) 95,74 %
06.04.2020 23:32 13,7 C 11,7 C 11,1 C 72 % 1025,8 hPa 0,0 l/m 0 min 0 min 0 W/m 0,0 km/h (0 Bft) 95,74 %
06.04.2020 23:34 13,7 C 11,7 C 11,1 C 72 % 1025,8 hPa 0,0 l/m 0 min 0 min 0 W/m 0,0 km/h (0 Bft) 95,65 %
06.04.2020 23:36 13,7 C 11,7 C 11,1 C 72 % 1025,8 hPa 0,0 l/m 0 min 0 min 0 W/m 0,0 km/h (0 Bft) 95,74 %
06.04.2020 23:38 13,7 C 12,2 C 10,6 C 72 % 1025,9 hPa 0,0 l/m 0 min 0 min 0 W/m 0,0 km/h (0 Bft) 93,62 %
06.04.2020 23:40 13,6 C 12,2 C 10,6 C 72 % 1025,9 hPa 0,0 l/m 0 min 0 min 0 W/m 0,0 km/h (0 Bft) 95,74 %
06.04.2020 23:42 13,6 C 12,8 C 10,6 C 73 % 1026,0 hPa 0,0 l/m 0 min 0 min 0 W/m 0,0 km/h (0 Bft) 95,74 %
06.04.2020 23:44 13,6 C 12,8 C 11,1 C 73 % 1026,0 hPa 0,0 l/m 0 min 0 min 0 W/m 0,0 km/h (0 Bft) 95,74 %
06.04.2020 23:46 13,6 C 12,8 C 11,1 C 73 % 1026,1 hPa 0,0 l/m 0 min 0 min 0 W/m 0,0 km/h (0 Bft) 97,83 %
06.04.2020 23:48 13,6 C 12,2 C 11,1 C 74 % 1026,1 hPa 0,0 l/m 0 min 0 min 0 W/m 0,0 km/h (0 Bft) 97,87 %
06.04.2020 23:50 13,6 C 12,2 C 11,1 C 73 % 1026,1 hPa 0,0 l/m 0 min 0 min 0 W/m 0,0 km/h (0 Bft) 97,87 %
06.04.2020 23:52 13,5 C 12,2 C 11,1 C 73 % 1026,2 hPa 0,0 l/m 0 min 0 min 0 W/m 0,0 km/h (0 Bft) 97,87 %
06.04.2020 23:54 13,5 C 12,8 C 11,1 C 73 % 1026,3 hPa 0,0 l/m 0 min 0 min 0 W/m 0,0 km/h (0 Bft) 95,74 %
06.04.2020 23:56 13,5 C 12,8 C 11,1 C 74 % 1026,3 hPa 0,0 l/m 0 min 0 min 0 W/m 0,0 km/h (0 Bft) 97,83 %
06.04.2020 23:58 13,5 C 12,2 C 11,1 C 74 % 1026,3 hPa 0,0 l/m 0 min 0 min 0 W/m 0,0 km/h (0 Bft) 100,00 %
_ Min-Zeit 07:38 05:02 06:38 16:28 06:24 - - - - 00:36 07:32
Minimum _ 9,5 C 8,9 C 7,8 C 35 % 1017,6 hPa - - - - 0,0 km/h (0 Bft) 55,56 %
_ Max-Zeit 16:18 14:56 14:04 23:48 23:54 00:00 12:08 00:00 13:38 13:38 00:10
Maximum _ 24,9 C 28,3 C 30,0 C 74 % 1026,3 hPa 0,0 l/m 4 min 0 min 805 W/m 41,8 km/h
S-SO (6 Bft)
100,00 %
Durchschnitt _ 16,7 C 17,1 C 15,7 C 52 % 1019,9 hPa #0,0 l/m #9:04 h #0 min. 434 W/m 15,7 km/h (3 Bft) 97,48 %
© 2020 W. Hausmann